GFSWCAN_850_thetae_168.txt.gz
Theta_e
291 289 289 289 290 293 293 293 293 291 292 294 298 300 302 307 305 303 303 303 304 304 305 305 304 304 303 304 302 302 302 301 299 302 302 301 299 298 299 300 301 302 302 301 301 304 304 303 301 303 301 302 303 304
292 291 289 289 288 289 292 293 292 291 291 291 291 299 303 307 305 304 304 302 304 305 304 304 304 304 304 305 305 303 302 301 302 300 299 297 300 296 297 302 299 301 302 302 302 303 302 304 302 303 303 303 303 304
291 291 291 291 289 288 290 292 292 291 291 291 290 297 302 304 307 306 303 303 303 304 304 304 305 305 304 304 305 304 303 304 303 302 299 298 301 296 300 298 300 299 299 302 301 301 299 302 303 302 302 303 303 304
291 291 291 291 291 289 289 292 292 291 290 292 291 292 301 303 306 305 302 304 303 304 305 304 304 305 305 305 304 304 305 304 304 303 300 299 300 299 299 298 298 300 298 299 299 299 302 302 303 302 302 303 303 303
290 290 291 291 291 289 288 291 292 291 290 288 291 290 299 300 306 304 302 302 303 305 304 302 302 302 303 304 304 304 303 304 303 301 299 301 299 298 296 296 297 298 299 301 303 302 301 302 303 302 302 302 303 303
289 290 290 291 291 290 289 291 292 291 290 288 290 290 294 300 304 301 301 301 304 304 304 302 300 301 301 302 303 303 302 303 303 302 300 300 301 301 299 299 300 302 302 302 302 302 302 303 303 303 302 302 302 302
289 289 289 290 290 289 288 291 292 292 289 288 290 289 292 299 299 301 302 303 302 302 304 300 299 299 299 300 300 300 301 302 302 303 301 301 301 301 298 300 302 302 303 303 303 303 303 304 304 303 302 302 302 302
289 289 289 289 289 289 288 290 291 291 288 288 288 290 291 298 300 302 304 303 303 303 303 300 300 298 299 299 299 300 300 301 301 301 300 300 299 298 300 301 302 302 303 303 303 303 303 302 302 303 303 302 302 302
289 289 287 289 290 288 287 288 288 291 288 290 291 290 296 301 301 303 303 303 303 303 302 301 300 299 299 299 299 300 300 297 299 298 298 299 298 301 302 301 301 302 301 302 302 302 303 302 302 302 302 302 302 302
289 289 289 289 289 290 288 287 290 290 292 293 293 297 300 301 302 303 301 301 301 303 301 300 298 299 299 298 297 298 297 298 297 298 298 298 300 301 301 300 300 299 299 299 299 301 301 302 302 302 302 302 301 302
289 289 288 288 287 288 288 288 290 288 293 295 297 298 300 300 301 301 298 300 299 300 301 300 298 298 299 296 298 298 297 297 296 296 298 297 300 299 298 298 298 298 298 299 299 300 300 300 301 301 302 302 301 301
288 288 288 288 287 287 287 290 289 288 293 294 295 296 298 299 299 299 301 299 301 301 300 299 298 299 299 300 297 296 296 296 296 296 298 299 297 298 297 297 298 298 299 300 300 301 301 301 301 301 301 301 301 301
289 289 288 288 289 288 290 290 287 288 293 294 295 296 297 298 300 302 301 302 301 300 299 298 295 300 301 301 297 297 296 295 295 299 299 295 296 296 296 296 297 298 299 299 299 300 300 301 302 302 302 301 301 301
287 289 289 288 288 291 289 287 287 291 294 295 295 297 297 299 299 298 294 297 299 300 299 298 297 300 300 301 300 303 298 297 300 301 297 293 294 295 295 296 297 298 298 299 298 299 300 300 301 301 301 300 300 300
287 287 288 290 290 289 287 286 288 292 294 294 295 296 296 295 295 296 297 298 299 299 300 299 299 300 300 300 300 298 297 301 302 297 295 294 293 295 296 296 297 298 298 298 298 299 299 299 300 300 300 300 300 299
290 290 290 290 289 287 287 288 291 293 293 294 293 294 295 295 295 297 298 298 299 300 302 302 298 297 299 300 296 297 297 293 294 292 294 293 293 294 296 297 298 297 298 297 297 298 299 299 299 299 299 299 299 299
287 289 290 290 289 287 287 290 290 291 292 292 292 292 292 293 293 294 297 298 300 302 299 294 296 297 296 296 296 292 294 295 294 294 294 293 292 293 294 293 295 297 298 297 298 299 299 299 298 298 298 298 298 298
288 287 288 289 288 287 288 290 290 290 289 289 291 290 291 291 292 293 295 299 301 298 297 293 296 296 297 296 296 294 294 294 293 293 293 293 293 292 292 292 293 294 296 298 298 298 298 298 298 298 298 298 298 298
289 288 289 289 288 287 288 288 289 287 287 288 289 289 290 291 291 293 295 297 299 298 298 297 295 292 295 293 293 293 292 292 292 292 292 292 292 292 292 292 292 292 292 293 295 297 298 298 298 298 298 297 297 297
289 289 290 288 287 287 286 287 288 288 287 287 287 288 288 288 290 291 293 295 295 295 294 294 293 295 295 294 294 293 293 294 296 295 293 292 292 291 291 291 292 292 292 292 292 293 294 296 297 297 298 298 297 297
289 290 289 288 287 287 286 287 287 287 287 286 286 286 287 288 288 288 288 290 291 289 292 292 291 291 294 295 294 294 293 292 292 291 291 291 291 291 291 291 291 291 291 291 291 291 292 292 293 293 294 295 297 297
289 289 288 287 287 287 286 287 287 287 286 286 286 285 285 285 286 285 286 288 288 288 290 290 290 290 291 291 291 291 291 290 290 290 290 290 291 291 291 292 292 292 292 291 291 291 291 291 292 292 292 292 293 293
289 288 288 287 287 286 284 285 286 285 278 283 284 278 280 284 284 285 284 286 287 288 289 289 289 290 290 290 290 290 290 290 290 290 290 290 290 291 291 291 291 292 292 291 291 291 291 291 292 292 292 292 292 292
289 288 287 286 285 280 285 285 285 285 284 276 272 277 279 282 284 282 280 284 285 286 288 289 290 290 290 290 290 290 290 290 290 290 290 290 290 290 290 291 291 291 291 291 291 291 291 292 292 292 293 294 294 293
288 285 285 278 282 279 270 270 273 276 275 273 274 273 279 282 275 273 277 285 285 287 287 288 289 289 289 288 288 288 289 289 289 289 289 289 289 290 290 290 291 291 291 291 291 291 292 292 293 293 293 294 293 293
277 282 281 275 278 277 276 276 273 274 274 278 281 278 280 282 276 277 277 285 286 287 288 288 288 288 288 288 288 288 288 288 288 288 287 288 288 289 290 291 291 291 291 292 292 292 292 292 292 291 291 291 291 291
278 277 283 284 284 283 280 282 281 276 273 275 272 272 271 276 278 278 284 285 286 286 287 288 288 288 288 288 287 287 287 288 288 287 288 287 288 289 289 290 290 290 291 291 290 290 290 290 289 288 288 287 287 287
283 284 278 284 285 284 274 273 273 276 274 280 279 275 276 277 279 283 284 285 286 286 287 288 288 288 288 288 287 287 287 287 287 287 287 287 288 289 290 289 287 286 286 286 286 286 286 286 286 286 286 286 286 285
283 283 284 280 284 284 283 277 279 283 283 283 277 277 279 282 282 284 284 285 286 286 286 287 287 288 287 287 286 286 285 285 285 285 287 287 287 286 286 286 286 286 286 286 286 286 285 285 285 285 285 285 284 284
281 282 283 282 278 279 281 282 283 283 284 285 285 284 283 282 283 283 284 285 285 285 286 287 287 287 287 286 286 286 285 285 285 286 285 285 285 285 285 285 285 285 285 285 285 285 285 285 285 284 284 284 284 284
281 282 282 281 280 280 281 282 283 283 283 284 284 284 283 282 281 282 283 283 284 284 285 286 286 286 287 287 286 286 285 285 285 285 286 286 285 285 284 284 284 284 285 285 285 285 285 285 285 285 285 285 284 284
280 280 279 276 279 280 281 282 282 282 282 282 282 282 281 281 280 280 280 281 282 282 283 283 284 285 285 286 286 285 285 286 287 286 285 284 284 284 284 284 285 285 285 285 285 285 285 285 285 285 285 284 284 284
278 278 278 278 278 279 279 278 279 279 280 279 279 279 280 280 278 278 279 279 280 280 281 282 282 283 283 284 285 285 286 286 285 284 284 283 283 283 284 284 285 285 285 285 285 285 284 284 284 284 284 283 283 283

GFSWCAN_850_thetae_171.txt.gz
Theta_e
291 292 292 292 292 292 292 292 293 292 293 291 291 294 292 293 300 301 303 302 303 302 304 302 305 303 303 303 301 301 302 301 298 302 301 300 299 298 299 298 300 302 302 302 300 303 304 303 302 304 301 303 302 303
291 291 292 292 292 292 292 292 292 292 292 292 293 293 293 294 300 301 301 301 302 302 304 303 304 304 304 305 305 303 303 300 302 299 298 297 299 295 297 302 298 301 301 302 302 303 302 303 303 304 303 301 303 303
290 290 291 291 291 292 292 292 291 292 293 292 293 292 292 293 299 298 303 303 302 303 303 304 304 304 304 303 304 304 302 303 303 302 298 297 301 297 299 298 299 298 299 301 301 301 299 302 302 301 301 302 302 303
289 290 290 291 291 292 292 292 291 292 292 292 292 292 292 294 299 299 301 304 303 303 304 303 304 304 304 304 303 304 305 304 303 302 300 298 300 298 299 298 298 299 298 299 299 299 301 302 303 302 301 301 303 303
289 289 290 290 290 291 291 292 291 292 292 293 292 289 293 293 299 300 303 304 304 304 303 300 301 303 304 305 304 304 304 304 303 301 298 300 298 298 296 296 296 297 298 300 302 302 301 302 303 303 302 302 302 302
289 289 289 290 290 290 291 291 290 291 291 292 291 288 292 293 299 299 301 302 302 302 303 302 299 301 302 303 303 303 303 303 303 302 299 300 300 300 299 300 299 301 301 301 301 301 302 303 303 303 303 301 302 302
289 288 289 289 290 290 290 291 290 290 291 291 290 288 293 293 296 297 300 300 300 302 303 300 299 298 299 300 301 301 301 302 302 302 300 300 300 301 299 302 302 302 302 303 303 303 303 302 302 302 302 302 302 302
289 289 289 289 290 290 290 290 290 289 289 289 289 289 290 293 297 299 301 302 301 302 302 300 299 299 299 299 299 300 300 301 301 300 300 299 298 298 300 301 302 302 302 303 303 302 302 302 302 302 302 302 302 302
289 289 289 289 289 289 290 290 290 287 288 290 289 291 291 297 299 301 302 302 302 302 301 301 300 301 299 298 299 299 300 297 298 297 297 299 297 299 301 301 302 301 301 301 302 302 302 302 303 301 301 302 302 302
289 289 289 289 289 289 290 290 290 288 289 289 293 295 298 299 299 301 301 301 300 301 301 299 298 299 299 298 297 298 297 297 298 298 298 298 299 300 301 300 300 300 300 300 299 301 301 301 301 301 301 301 301 302
289 289 289 289 288 288 288 288 288 290 289 293 295 296 297 299 299 300 298 300 298 301 300 298 298 298 299 299 299 298 297 296 294 295 298 297 299 298 297 298 298 298 298 298 299 299 300 299 300 301 300 301 301 301
290 289 289 289 289 288 288 288 289 290 288 289 292 293 295 298 297 299 300 299 301 302 300 296 298 300 299 300 297 296 297 295 294 296 299 299 295 297 296 297 297 297 298 299 299 300 300 301 300 301 300 300 301 301
289 287 289 289 288 288 289 289 290 288 286 291 294 294 295 297 298 301 302 302 301 300 298 298 298 299 299 299 296 296 297 297 295 298 298 294 296 294 295 296 297 297 298 298 299 299 299 300 301 301 301 300 300 301
287 287 290 289 289 288 289 290 288 286 291 294 295 296 296 298 298 297 295 300 299 299 299 299 297 300 300 300 298 297 296 296 300 301 297 289 293 294 295 295 296 297 297 298 298 299 299 300 300 301 301 300 300 300
289 288 288 289 290 289 288 287 286 287 292 294 294 295 295 295 295 295 297 298 299 299 299 300 299 301 301 300 297 295 296 297 301 299 292 292 293 295 296 296 296 297 297 298 298 298 298 298 299 299 299 299 299 299
289 290 290 290 290 288 287 287 289 291 293 293 293 293 294 294 293 296 298 298 299 300 301 302 299 299 301 298 293 293 295 295 295 290 293 292 293 293 294 296 297 297 297 298 298 298 298 298 298 298 298 299 299 299
288 288 289 290 290 287 287 289 291 291 291 291 291 291 291 293 293 294 295 298 299 301 299 296 299 298 296 292 294 291 291 291 292 293 293 294 295 295 294 295 298 299 299 297 297 298 298 298 298 298 298 298 298 298
288 287 287 288 288 287 289 289 289 290 288 289 291 289 290 289 290 291 294 298 300 298 296 293 295 289 289 292 296 293 293 293 295 293 293 292 293 293 292 293 293 296 299 296 297 297 297 298 298 298 298 298 297 297
288 288 289 289 287 287 288 288 289 287 287 287 288 289 289 290 289 290 294 297 298 298 297 294 290 288 296 292 292 293 293 293 292 292 292 292 292 292 292 292 292 292 292 296 297 298 297 297 297 297 297 297 297 297
289 289 289 288 287 287 286 287 288 287 287 287 287 288 288 288 288 290 293 296 295 295 294 293 293 293 293 293 294 293 292 292 292 291 291 292 291 291 291 291 291 291 291 292 292 292 293 294 295 296 297 297 297 297
289 290 288 287 287 286 286 287 287 287 287 286 286 286 287 288 287 287 289 290 290 289 291 289 289 290 292 292 292 293 294 295 295 295 292 291 290 291 291 291 291 291 291 291 291 291 291 292 292 292 293 293 293 294
289 289 287 287 286 286 286 286 287 286 286 286 285 285 284 284 285 284 287 288 287 286 288 288 289 290 293 293 292 292 291 290 290 290 290 290 291 291 291 291 292 292 291 291 291 291 291 291 291 292 292 292 292 292
289 288 287 287 286 285 284 285 285 284 280 281 282 279 279 282 283 285 284 285 286 286 288 289 289 289 289 289 289 290 290 290 290 290 290 290 290 291 291 291 291 291 291 291 291 291 291 291 291 292 292 293 293 292
288 288 287 286 284 279 284 283 284 283 282 277 276 277 278 281 283 283 283 284 284 287 289 289 289 289 289 289 289 289 289 289 290 290 289 290 290 290 290 290 290 291 291 291 291 291 291 292 292 292 293 293 294 293
288 284 284 275 281 278 272 270 270 275 276 272 275 275 276 280 276 277 281 285 285 286 287 288 288 289 289 288 288 288 288 289 289 289 289 289 289 289 290 290 290 290 291 291 291 292 292 292 293 293 293 292 291 290
277 280 279 276 278 276 276 276 272 273 271 274 273 276 279 275 278 278 279 285 285 286 286 287 287 287 287 287 287 288 288 288 288 287 286 288 288 289 290 290 290 290 291 291 291 291 291 291 291 291 290 289 288 288
277 276 282 283 283 282 279 280 280 275 271 276 271 272 273 278 279 280 283 284 285 286 286 287 286 286 287 287 287 287 287 287 287 287 287 287 288 288 289 289 289 289 289 289 288 287 287 286 286 286 286 286 286 285
281 282 277 283 283 283 273 272 273 275 274 279 278 275 275 276 279 282 283 284 285 285 286 287 287 287 287 287 287 286 286 287 287 287 287 287 288 288 287 286 286 285 286 286 286 286 285 285 285 285 285 285 285 285
282 282 283 278 282 282 280 277 278 282 282 282 276 276 278 280 281 282 283 285 286 285 286 286 287 287 286 286 286 285 285 285 285 285 287 287 286 285 285 285 285 285 285 285 285 285 285 285 285 285 285 285 285 285
280 281 282 280 274 277 279 280 281 282 283 283 283 282 281 281 282 282 284 285 285 285 285 286 287 287 286 286 286 285 285 285 285 286 286 285 285 284 284 284 284 284 284 285 285 285 285 285 285 285 285 284 284 284
280 282 281 281 277 279 280 281 282 282 283 283 283 284 282 280 280 280 281 282 283 284 284 285 285 286 286 285 285 285 285 285 285 284 285 285 284 284 283 284 284 285 285 285 285 285 285 285 285 285 284 284 284 284
280 279 278 275 278 279 280 281 281 281 281 282 281 281 280 281 280 279 279 280 281 281 282 283 283 284 284 285 285 284 284 284 284 284 284 283 283 283 284 284 285 285 285 285 285 285 285 284 284 284 284 284 283 283
278 278 278 278 278 278 278 278 278 278 279 278 278 279 279 279 278 278 279 279 280 280 281 281 282 283 283 284 284 285 285 285 284 283 283 283 283 284 284 284 285 285 285 285 285 285 284 284 284 284 283 283 283 283

GFSWCAN_850_thetae_174.txt.gz
Theta_e
291 292 292 292 292 293 293 292 292 292 292 293 293 293 293 293 294 294 295 297 298 300 302 302 303 304 303 302 305 303 303 303 303 307 308 306 305 303 302 302 306 307 308 307 306 308 310 305 303 306 306 304 302 303
291 291 291 292 292 292 292 292 292 292 292 292 293 294 293 293 293 294 295 298 300 301 302 302 302 303 304 306 304 302 305 304 305 308 305 304 303 300 303 306 300 305 307 307 307 309 306 303 304 303 301 301 302 302
290 290 291 291 291 291 292 292 293 292 292 292 294 294 293 293 293 295 294 298 302 300 302 303 302 303 303 303 305 303 303 303 303 303 303 303 305 302 304 303 303 301 301 305 304 305 304 303 303 302 301 300 301 302
289 290 290 290 290 291 291 291 292 293 292 292 293 294 293 293 292 294 294 298 300 300 302 302 303 302 302 302 304 303 303 303 303 302 303 304 305 300 303 302 303 303 301 304 303 304 303 302 302 302 302 301 301 302
289 289 290 290 290 290 290 290 291 291 292 291 292 292 293 293 292 293 295 299 300 302 303 299 302 303 303 304 304 303 303 303 302 303 304 305 300 301 299 300 303 300 303 304 306 303 303 303 303 303 302 301 301 302
288 288 289 290 290 290 290 290 290 291 291 291 291 291 291 292 292 295 298 302 300 300 301 302 299 300 302 303 304 303 302 303 303 303 303 300 300 302 304 304 304 301 301 302 303 302 302 303 303 302 302 302 301 302
289 289 289 289 288 289 290 290 290 290 291 291 291 289 290 290 292 295 297 300 302 302 301 300 299 298 300 301 301 301 302 302 302 302 302 302 301 301 303 305 304 302 302 302 302 302 303 302 302 303 302 302 301 301
289 289 289 289 289 289 290 290 290 290 291 291 288 289 290 290 291 293 296 300 299 300 300 302 300 299 299 299 300 300 301 302 301 300 300 302 299 300 304 303 302 301 302 302 302 302 302 302 303 303 302 302 302 301
288 289 289 289 289 289 289 290 290 290 290 288 288 289 291 294 295 298 299 300 300 301 300 300 302 302 298 298 299 300 301 302 299 302 302 301 302 305 305 303 302 302 302 301 301 301 302 302 302 302 302 302 302 301
290 290 289 289 289 289 289 290 289 290 290 288 290 294 295 298 298 298 300 299 300 300 300 300 299 300 299 299 299 300 298 301 302 301 298 302 303 302 301 301 301 301 301 300 300 301 300 300 300 301 301 301 301 301
290 290 289 289 289 289 289 289 289 289 288 289 294 294 295 295 296 298 298 300 299 302 300 298 299 299 298 301 300 298 301 299 303 301 302 301 301 300 298 299 298 299 300 299 299 299 299 299 300 300 300 300 301 301
290 289 289 289 289 289 290 289 289 290 289 289 288 290 292 295 297 298 300 300 302 302 299 298 299 299 299 300 300 297 300 298 303 297 300 301 300 296 296 297 297 297 298 298 299 300 300 300 300 301 301 301 300 301
289 287 287 287 289 289 288 289 289 289 290 288 292 294 294 295 298 300 303 302 302 300 297 298 300 299 299 299 298 299 300 300 296 298 300 300 296 294 295 296 296 297 298 298 299 299 299 299 300 300 300 300 300 300
289 288 288 289 288 288 288 288 289 289 287 291 294 294 296 298 298 298 299 301 300 300 298 300 298 302 300 300 299 302 297 297 300 301 301 297 293 294 295 295 296 297 297 297 298 298 298 299 300 300 301 300 300 300
289 289 289 290 290 289 289 289 288 287 290 292 294 294 296 295 295 295 295 297 299 299 300 301 301 301 302 302 300 298 298 302 302 302 297 293 294 295 295 296 296 296 297 297 297 297 298 298 298 299 299 299 299 299
288 288 290 290 290 289 288 287 287 288 291 292 292 293 293 294 296 295 297 298 299 300 301 301 301 303 303 301 300 300 301 301 300 295 292 292 293 294 295 296 296 296 297 297 297 297 297 297 297 298 298 298 298 299
288 288 289 290 289 288 287 287 290 290 291 290 291 291 290 291 292 293 294 297 299 301 302 301 303 303 299 299 299 296 299 296 292 292 294 294 294 296 297 297 298 295 296 296 296 297 298 297 297 297 297 297 297 298
288 288 287 288 288 287 288 289 289 289 289 289 290 289 289 290 289 290 291 296 299 298 297 299 296 298 300 301 298 294 292 292 293 293 292 292 293 293 293 295 297 296 295 295 296 298 297 297 297 297 297 297 297 297
287 288 289 288 287 287 288 288 288 288 287 287 288 288 289 289 289 289 291 295 299 298 296 294 295 297 297 294 294 293 293 292 291 292 293 292 292 292 292 292 293 295 296 296 296 297 297 297 296 296 296 296 296 296
289 289 289 287 287 287 287 287 287 287 287 287 287 288 288 288 288 289 291 293 295 293 292 292 291 290 293 293 293 293 292 292 292 291 291 291 292 291 291 291 291 291 292 292 294 293 293 294 295 296 296 296 296 296
289 289 288 287 287 286 286 286 287 286 287 286 286 286 287 288 287 286 287 289 289 288 290 288 288 288 293 293 292 293 291 291 293 294 291 290 290 291 291 291 291 291 291 291 291 291 291 291 292 292 292 292 293 294
289 289 287 286 286 286 285 286 286 285 286 285 285 285 284 285 284 285 285 287 286 285 287 288 289 292 292 292 291 292 291 291 291 290 290 290 290 291 291 291 291 291 291 291 291 291 291 291 291 292 292 292 292 292
288 288 287 286 286 285 283 284 284 283 285 283 283 284 282 282 284 285 286 285 284 285 287 288 289 289 290 289 290 290 290 290 290 290 290 290 290 290 290 290 291 291 291 291 291 291 291 291 291 292 292 293 292 292
288 287 286 285 283 279 282 281 282 281 281 280 281 283 282 281 283 286 286 285 283 285 287 287 288 289 288 289 289 289 289 289 290 290 289 290 290 290 290 290 290 290 291 291 291 291 291 292 292 293 293 293 293 292
287 283 283 275 280 278 276 275 275 279 278 276 280 281 280 279 282 282 284 284 284 285 286 287 288 288 288 287 287 287 287 288 288 289 289 289 289 289 289 290 290 290 291 291 291 291 292 292 292 292 291 290 290 290
277 280 279 277 278 277 277 277 274 276 276 278 277 276 278 280 284 283 282 282 283 284 285 285 286 286 286 286 287 287 287 288 287 285 286 287 288 288 290 290 290 290 291 291 291 291 291 290 289 288 287 286 286 286
276 278 282 282 282 281 279 279 279 277 277 279 277 277 279 281 281 281 282 283 284 284 285 284 284 285 286 287 287 287 287 287 286 287 287 287 287 288 289 289 290 289 289 288 287 287 286 286 286 285 285 285 285 285
280 281 277 281 282 281 273 273 274 275 276 278 278 278 280 278 282 281 282 283 284 285 285 285 286 286 287 287 287 287 287 287 286 286 287 287 288 288 287 286 286 285 285 285 285 285 285 285 285 285 285 285 285 285
281 281 281 277 280 280 278 276 278 281 281 281 278 279 278 279 280 281 283 284 285 285 285 286 286 286 286 286 286 285 286 285 285 285 286 286 285 285 285 285 284 284 284 284 285 285 285 285 285 285 285 285 285 284
279 280 280 277 273 276 278 279 280 281 282 282 282 281 280 279 280 281 283 284 285 285 285 286 286 286 286 286 285 284 285 285 285 286 286 285 284 284 284 284 284 284 285 285 285 285 285 285 284 284 284 284 284 284
280 281 281 279 276 278 279 280 281 281 282 282 282 282 280 280 280 281 282 283 283 284 284 285 285 286 285 285 284 284 284 284 285 285 284 284 284 283 284 284 285 285 284 284 284 284 284 284 284 284 284 284 284 284
280 279 278 275 277 279 280 280 280 281 281 281 280 280 280 280 279 279 280 281 282 282 283 283 284 284 284 283 283 284 284 284 283 283 283 283 283 283 284 284 285 284 284 285 285 285 285 285 284 284 284 284 283 283
277 278 277 278 277 277 277 279 278 278 279 278 277 278 279 279 278 278 278 279 279 280 280 281 282 282 283 283 284 284 284 283 283 282 282 283 283 284 284 284 284 284 284 284 285 285 285 284 284 283 283 283 283 282

GFSWCAN_850_thetae_177.txt.gz
Theta_e
291 291 291 292 292 293 293 293 293 293 293 293 293 292 293 294 293 294 293 294 295 296 295 297 299 302 304 304 306 305 305 304 303 307 308 309 309 307 306 307 308 308 309 308 309 309 310 309 305 307 307 306 305 304
290 290 291 292 292 292 292 292 292 292 293 293 293 292 293 293 294 294 293 293 295 295 296 297 298 300 301 303 304 304 304 304 305 306 308 308 308 306 306 306 305 309 310 310 310 310 307 305 306 305 303 302 303 303
290 290 290 291 291 291 291 291 292 292 292 293 293 293 292 294 294 294 293 293 294 295 296 298 300 301 301 302 304 303 301 303 303 306 308 308 307 306 306 306 305 304 306 306 306 308 307 306 305 303 303 301 301 303
290 290 290 290 291 291 291 291 291 291 291 292 292 293 292 292 293 294 294 293 293 294 298 301 301 302 302 302 302 303 304 304 304 302 305 307 306 304 307 305 306 304 303 305 306 306 306 304 304 303 303 302 301 302
289 290 290 289 290 290 291 291 291 291 291 291 291 292 292 292 292 292 293 292 292 294 300 300 301 302 302 302 302 303 303 304 302 302 305 307 305 304 303 303 305 303 305 306 307 306 306 305 303 303 303 302 301 301
289 290 290 290 288 289 290 290 290 291 291 291 291 292 291 291 292 293 293 300 300 296 296 301 299 300 302 302 300 302 301 302 303 304 306 304 302 304 306 306 306 304 303 305 305 303 303 303 304 303 302 302 301 301
288 289 288 289 290 290 290 290 290 290 290 290 290 291 292 291 292 293 293 295 294 294 296 300 301 298 299 299 299 299 301 301 302 305 305 305 303 303 306 306 306 304 303 302 302 302 303 303 303 302 303 302 302 301
289 289 289 289 289 289 289 290 290 290 290 290 290 291 291 289 290 291 290 292 293 294 296 302 301 298 298 298 298 300 301 302 302 304 303 305 302 303 306 305 305 303 302 302 302 303 303 303 303 303 303 302 302 302
288 288 289 288 289 289 289 290 290 290 289 290 290 290 289 291 293 295 295 297 298 297 298 300 301 303 298 299 299 299 301 304 301 304 305 304 305 306 306 305 305 303 302 303 302 302 302 302 302 301 301 301 301 301
289 290 290 291 290 290 290 289 289 289 289 289 290 291 294 297 296 296 296 298 298 298 298 302 300 301 300 301 300 301 301 303 304 304 301 304 305 304 304 303 302 302 302 301 301 301 301 301 300 300 300 301 301 301
289 289 290 290 290 289 289 289 289 289 289 289 290 292 293 293 290 295 296 298 299 300 299 299 300 300 299 303 302 301 303 302 305 304 304 304 303 304 302 302 300 300 301 301 301 301 300 299 299 300 300 300 300 301
289 289 289 288 289 289 289 289 289 289 289 289 289 289 290 292 295 298 300 300 302 304 299 300 300 299 299 300 301 299 303 301 306 299 303 303 304 298 296 296 297 298 299 299 299 299 299 299 300 300 300 300 300 300
288 288 289 288 290 290 289 290 289 289 289 289 289 290 293 294 297 300 302 304 304 300 298 299 301 298 298 299 300 301 302 303 298 300 301 303 299 296 295 296 296 297 297 298 298 299 299 299 299 299 300 300 300 300
288 288 290 288 288 288 289 289 288 289 289 289 291 295 296 298 299 299 299 299 299 301 299 300 299 302 299 301 301 303 299 298 300 301 303 302 297 295 295 295 296 296 297 297 298 298 298 299 299 300 300 300 299 299
288 287 289 290 290 289 289 289 289 289 288 290 292 295 296 296 295 295 296 296 298 299 301 300 301 301 303 302 303 299 299 302 301 304 301 295 295 295 295 295 295 296 296 297 297 297 297 298 298 298 299 299 299 299
288 287 288 290 290 289 289 287 287 288 288 289 292 294 294 294 296 295 296 297 298 300 301 301 302 304 305 304 302 302 302 303 303 297 295 294 294 294 294 295 295 296 296 297 297 297 297 297 297 297 298 298 298 299
290 288 288 289 289 289 287 287 288 289 289 291 293 291 291 291 292 293 292 294 296 299 302 302 305 306 301 304 303 300 303 298 295 294 293 294 294 296 296 294 294 295 295 296 296 296 296 296 297 297 297 297 297 298
288 287 288 288 289 287 287 289 289 289 290 290 290 291 290 290 290 291 290 292 293 298 298 301 299 302 303 303 301 295 294 294 294 293 293 293 293 295 296 294 294 294 295 296 295 295 295 296 296 296 295 296 296 296
288 287 288 289 288 287 288 288 288 289 289 288 288 289 289 290 289 288 289 291 293 296 296 296 299 300 298 295 295 294 294 293 293 292 292 292 293 293 294 296 295 294 294 296 297 297 296 295 295 295 295 295 295 295
288 289 289 288 287 287 287 287 287 288 289 288 287 288 288 288 288 288 289 291 293 291 291 292 291 291 294 294 294 293 292 292 292 291 291 291 292 292 291 291 292 292 294 296 295 294 294 295 294 295 295 295 295 295
289 289 289 287 286 286 286 286 287 287 287 288 286 286 288 287 287 286 287 288 288 288 290 289 289 288 291 291 291 291 292 293 293 292 291 290 291 291 291 291 291 291 291 291 291 291 291 292 292 292 292 292 293 294
288 289 287 286 286 286 285 285 285 285 285 285 285 285 285 286 285 285 285 286 286 285 286 287 288 289 291 291 291 292 293 293 292 291 290 290 290 291 291 291 291 291 291 291 291 291 291 291 291 292 292 292 292 292
288 287 287 286 285 285 283 284 284 283 287 285 285 287 285 285 284 286 287 285 284 285 286 287 289 290 290 290 291 290 291 290 290 290 290 290 290 290 290 291 291 291 291 291 291 291 291 291 292 292 292 292 292 292
288 287 286 284 282 281 282 281 282 282 282 283 285 286 284 282 284 287 287 285 283 285 286 287 288 288 288 288 288 288 289 289 289 289 289 289 290 290 290 290 290 290 290 291 291 291 292 292 292 293 292 291 291 291
287 283 282 279 280 280 280 281 281 283 283 281 285 285 282 281 286 285 286 284 283 284 285 286 287 287 287 287 287 287 288 288 288 288 288 288 289 289 289 290 290 290 290 291 291 292 292 292 291 290 290 289 288 287
280 281 281 280 282 282 281 282 281 281 281 283 281 280 280 285 286 285 284 281 281 282 284 286 285 286 287 286 286 287 287 287 286 287 287 288 288 289 290 290 290 290 291 291 292 291 290 289 287 286 286 285 285 285
281 280 282 281 281 281 282 280 280 282 282 283 282 282 284 285 284 283 281 281 281 283 284 284 285 285 286 286 286 286 285 285 286 287 287 287 288 289 289 290 290 290 290 289 288 287 286 285 285 285 285 285 285 285
279 280 279 281 281 280 279 280 281 281 282 279 281 281 283 283 283 279 281 282 283 284 284 285 286 286 286 286 286 286 286 286 286 287 287 288 288 288 288 288 286 286 285 285 285 285 285 285 285 285 285 285 285 285
280 281 281 276 280 280 278 280 281 281 280 281 283 282 279 278 279 280 282 283 284 284 285 285 286 286 286 286 285 286 286 286 286 286 287 286 285 284 285 285 284 284 284 285 285 285 285 285 285 284 284 284 284 284
279 280 280 278 276 279 277 278 279 280 280 280 281 280 279 278 279 281 282 283 284 284 285 286 286 286 286 285 285 285 285 285 286 286 285 284 284 284 283 284 284 284 285 285 285 285 284 284 284 284 284 284 284 284
279 280 280 279 277 277 278 280 280 281 281 281 281 281 279 279 280 281 282 283 283 284 284 285 285 285 285 285 285 285 285 285 286 285 284 284 283 283 284 284 284 284 284 284 285 285 285 285 285 284 284 284 284 283
279 277 277 277 277 278 279 280 280 280 280 281 280 280 280 279 279 279 279 281 281 282 283 283 284 284 284 283 284 284 285 285 284 284 283 283 283 284 284 284 284 284 284 284 285 285 285 285 284 284 283 283 283 283
277 277 277 277 277 277 277 278 277 277 278 277 277 277 278 278 277 278 278 279 280 280 281 282 282 283 283 283 283 283 283 282 282 282 282 283 284 284 284 284 284 284 284 284 284 284 284 284 284 283 283 283 283 282

GFSWCAN_850_thetae_180.txt.gz
Theta_e
291 291 291 291 291 292 292 292 292 293 293 293 293 293 292 291 293 293 293 294 294 294 295 295 295 296 297 299 299 300 303 304 304 305 305 306 306 305 307 305 304 304 304 304 305 307 307 306 303 305 305 304 303 303
290 290 290 290 291 291 292 292 292 292 292 293 293 294 294 292 293 294 294 294 293 293 293 294 296 296 296 296 296 300 303 304 304 305 305 304 306 306 307 307 304 306 306 305 306 307 306 307 306 306 304 303 302 302
290 290 291 291 290 290 291 292 291 292 292 292 292 292 293 294 292 293 294 294 294 294 294 294 294 294 295 295 295 298 299 303 304 305 304 306 307 306 307 304 303 304 306 303 306 305 305 306 306 306 304 304 302 301
290 290 290 290 290 290 290 291 291 291 291 291 292 292 292 293 293 292 292 292 292 294 294 293 294 295 297 299 300 299 298 302 303 303 301 302 306 306 306 305 303 302 302 303 303 303 305 305 305 304 304 304 303 302
290 290 290 290 290 290 290 290 291 291 291 291 291 291 291 291 292 292 291 291 291 292 294 295 296 295 294 296 302 301 300 301 301 301 301 303 304 303 301 300 301 301 301 302 303 305 305 304 304 304 303 303 302 301
289 289 290 290 290 290 291 290 290 290 290 290 290 291 291 291 292 292 292 294 296 295 294 296 296 297 299 298 302 301 302 301 302 302 302 303 305 302 302 302 304 305 304 305 303 304 304 303 303 303 303 302 302 301
289 289 289 289 289 289 289 289 289 290 290 290 290 290 291 291 291 293 292 294 296 294 292 293 298 297 298 298 299 300 300 300 301 300 304 305 303 302 303 303 304 305 304 304 303 303 302 303 303 302 303 303 302 302
289 289 289 289 289 290 290 290 289 289 290 290 290 290 290 291 291 291 291 291 290 291 293 294 298 297 297 297 297 299 299 299 299 301 302 303 302 302 303 304 305 304 303 303 302 302 303 303 303 303 303 303 303 302
288 289 289 289 289 289 289 289 290 290 290 290 290 290 290 289 291 291 293 294 293 294 295 296 301 300 297 299 299 299 300 301 301 301 303 303 302 302 303 304 305 304 303 302 302 302 302 302 302 302 302 302 302 302
287 289 289 290 290 290 290 291 290 290 290 289 290 290 290 291 292 293 295 295 295 296 296 297 301 300 298 299 299 299 300 302 303 302 303 301 301 305 305 305 304 304 303 302 301 301 301 301 301 301 301 301 301 301
288 288 289 289 289 290 290 290 290 290 289 290 289 289 289 290 290 290 293 296 298 298 296 298 300 299 299 302 302 300 302 301 304 301 301 300 301 302 304 304 304 303 302 302 301 301 301 301 300 300 300 300 301 300
288 288 289 289 289 289 290 289 290 290 290 289 289 289 289 289 290 292 297 298 299 302 300 299 299 300 299 300 301 299 303 301 303 299 300 300 300 301 302 301 299 299 300 300 300 300 300 300 300 300 300 300 300 300
288 288 288 289 289 288 288 289 289 289 289 289 289 290 291 290 293 296 297 299 302 300 299 300 300 298 298 299 300 300 301 301 298 300 300 299 298 297 297 297 297 297 297 298 298 299 299 299 299 299 299 299 300 300
288 288 288 287 289 290 289 289 290 290 289 289 290 287 292 294 295 298 298 297 297 296 299 300 299 300 299 300 300 303 298 298 299 300 297 295 296 295 296 296 296 296 297 297 298 298 298 298 299 299 299 299 299 299
287 288 287 287 289 289 289 289 289 289 289 289 290 292 291 295 295 294 295 295 296 296 297 299 300 300 301 301 301 296 297 299 300 298 296 295 295 295 295 295 296 296 296 296 296 297 297 297 297 298 298 299 298 298
288 289 288 288 289 290 289 288 289 289 288 287 289 290 293 293 293 292 293 294 294 294 298 300 301 303 303 302 299 298 297 298 298 294 295 295 295 294 295 295 295 295 295 295 296 296 296 296 296 297 297 298 298 298
290 289 289 288 289 289 288 288 287 288 287 289 291 292 291 291 291 291 291 291 291 292 301 301 303 305 300 302 303 297 297 297 294 294 294 294 294 294 294 293 294 294 295 295 295 295 295 295 295 296 297 297 297 297
290 289 288 287 288 289 287 287 288 288 289 289 290 291 290 289 290 291 290 289 289 293 297 300 298 302 302 303 302 295 295 294 293 293 294 295 294 293 293 293 293 294 294 294 294 294 294 295 295 295 295 295 296 296
290 287 287 288 288 287 287 288 288 289 289 289 289 289 289 289 289 289 289 289 290 291 294 296 298 298 297 295 295 295 294 293 292 292 292 293 293 293 293 293 295 295 295 295 294 294 294 294 294 294 294 294 295 295
288 288 288 289 287 287 287 287 287 287 289 289 288 288 287 289 288 287 288 289 291 291 290 291 291 290 291 294 294 293 292 291 292 291 290 290 291 293 294 294 294 295 295 295 295 295 295 295 295 295 294 294 294 293
288 289 289 288 286 286 286 286 286 287 287 287 287 286 287 288 287 286 286 288 287 286 289 288 289 289 291 292 292 292 292 292 291 292 292 291 290 291 291 291 291 291 291 291 292 291 292 292 292 292 293 293 293 294
288 289 288 287 286 286 285 285 284 285 285 286 286 285 286 286 286 285 285 285 285 284 285 286 287 289 291 292 292 292 292 292 291 291 291 291 290 290 291 291 291 291 291 291 291 291 291 291 291 291 292 291 292 292
288 288 287 286 285 284 283 283 284 283 286 285 286 287 286 285 285 287 286 284 284 284 285 286 287 289 289 289 290 291 291 291 290 290 290 290 290 290 290 291 291 291 291 291 291 291 292 292 292 292 292 292 291 291
287 287 286 284 283 280 282 282 282 283 284 284 286 286 284 282 286 287 285 284 283 284 286 287 288 289 289 289 288 288 288 289 289 289 289 289 290 290 290 290 290 290 291 291 291 292 292 292 291 291 290 290 290 290
286 283 282 275 281 279 274 275 275 281 284 283 285 285 283 282 286 286 285 283 282 283 285 286 287 287 287 287 288 288 287 288 288 288 288 288 289 289 289 290 290 290 291 291 292 292 291 290 290 289 287 286 286 286
276 281 278 280 277 278 277 277 277 278 280 283 282 281 282 286 285 284 283 281 281 282 284 285 284 286 287 287 288 288 288 288 287 288 287 288 288 289 289 290 290 290 291 291 291 290 288 286 286 285 285 285 285 285
275 275 282 281 281 281 280 281 281 280 277 279 280 282 284 284 284 282 281 281 281 283 284 284 285 286 286 286 286 286 286 286 286 287 287 288 289 289 290 290 291 290 290 288 286 286 285 285 285 285 285 285 285 285
279 280 276 281 281 280 274 276 277 279 280 280 281 278 279 281 282 279 280 281 282 283 284 285 285 285 286 286 286 286 286 286 287 287 288 288 288 289 290 289 287 286 285 285 285 285 285 285 285 285 285 284 284 284
280 281 280 275 280 279 278 277 280 280 279 280 280 279 278 277 278 280 281 282 283 284 284 285 285 285 285 285 285 285 286 286 286 286 287 286 285 285 285 284 284 284 285 285 285 285 285 284 284 284 284 284 284 284
279 280 280 278 272 275 276 278 279 280 280 279 279 279 278 278 278 280 281 282 283 284 284 284 284 284 284 284 284 284 285 286 286 285 285 284 284 283 283 284 284 284 284 284 284 284 284 284 284 284 284 284 283 283
279 280 280 279 275 277 278 279 280 281 281 281 281 280 278 279 279 280 281 282 283 283 283 284 285 285 285 285 285 285 285 286 285 284 284 284 283 283 284 284 284 284 285 285 285 285 285 284 284 284 283 283 283 283
279 278 277 273 276 278 279 280 280 280 280 281 279 279 279 279 279 279 280 281 282 282 283 283 284 284 284 284 284 285 285 285 284 284 283 283 284 284 284 284 284 284 284 284 285 285 284 284 284 283 283 283 283 283
277 277 277 277 277 276 277 278 278 277 277 277 277 277 278 278 278 278 279 279 280 281 281 282 283 283 283 283 284 284 284 283 282 282 283 283 284 284 284 284 284 284 284 284 284 284 284 284 283 283 283 283 282 282

GFSWCAN_850_thetae_183.txt.gz
Theta_e
291 291 291 291 291 291 291 292 292 292 292 293 293 293 293 293 291 292 293 293 293 294 293 293 293 294 295 295 294 296 296 296 301 302 303 302 302 302 302 303 302 304 304 305 307 308 306 305 302 304 304 304 303 302
291 291 291 290 290 290 291 291 291 291 291 292 292 292 292 293 293 292 293 294 294 294 294 294 294 293 294 294 295 295 296 296 301 304 301 301 302 301 302 303 302 304 304 303 303 305 304 305 305 305 305 304 303 302
290 291 290 291 291 291 291 291 291 291 292 292 292 291 291 292 293 293 293 293 293 293 292 293 294 293 293 293 293 295 295 295 295 297 301 303 306 303 303 303 303 302 303 303 303 303 304 305 307 306 305 304 303 301
290 290 290 290 290 291 290 291 291 290 291 291 292 292 292 292 292 292 292 293 292 292 292 292 292 292 294 294 294 295 294 295 295 297 300 302 303 304 304 303 303 303 301 303 301 301 303 305 306 306 305 304 303 302
289 290 290 290 290 290 290 290 290 291 290 291 291 291 291 291 291 291 291 292 292 291 291 291 291 292 294 293 296 297 295 296 296 297 301 302 302 302 301 302 303 303 301 303 304 303 304 304 304 304 304 303 302 301
289 289 289 289 289 290 289 289 289 290 290 289 290 290 290 290 290 291 291 291 291 292 293 295 293 293 292 293 294 297 298 296 297 298 300 302 303 303 303 304 302 303 303 304 303 304 304 303 303 303 303 303 302 301
288 288 289 289 289 289 289 289 289 289 289 289 290 290 290 290 291 291 290 292 293 294 292 290 289 294 297 297 296 296 297 300 299 300 300 302 303 304 303 304 304 303 303 303 303 304 302 303 303 303 303 303 302 301
288 288 289 289 289 288 289 289 290 290 290 289 290 290 290 290 291 290 289 289 289 290 292 289 289 294 295 297 298 298 299 299 299 300 301 304 302 301 303 303 305 305 303 303 304 303 302 303 303 302 302 302 302 302
288 288 288 289 289 290 290 290 290 290 290 290 290 290 290 290 290 287 288 289 289 291 291 292 293 293 295 297 298 297 298 299 299 300 301 302 302 303 302 303 303 304 304 304 303 302 302 302 302 302 302 302 302 301
286 286 288 289 289 289 290 289 290 290 290 290 290 290 289 288 289 290 291 291 294 294 292 294 295 297 297 298 298 299 298 302 301 300 302 302 301 303 304 303 304 304 304 303 302 301 302 301 301 301 301 301 301 301
287 288 288 288 289 289 289 289 290 290 290 290 290 289 289 289 290 290 291 294 294 294 295 295 294 294 296 299 301 300 301 301 304 301 302 300 300 301 304 304 305 304 304 303 302 302 302 302 301 301 301 300 300 300
288 287 288 288 288 289 288 289 288 289 290 290 289 289 289 289 289 287 285 292 295 296 297 297 297 296 296 297 300 299 301 301 303 298 302 301 299 302 303 304 304 303 302 302 301 301 301 301 300 300 300 300 300 300
286 288 288 288 288 287 289 289 289 289 290 290 289 289 289 288 289 285 283 292 293 299 299 299 299 299 299 299 299 299 300 301 297 301 301 299 299 297 297 298 298 299 300 300 300 300 299 299 299 300 300 299 300 300
288 288 288 288 287 287 289 289 289 291 291 289 289 285 286 284 285 287 291 295 296 296 296 296 298 298 299 298 300 301 298 298 299 300 298 296 297 297 296 297 297 297 297 297 298 298 298 298 298 299 299 299 299 299
288 288 288 288 287 288 290 289 289 290 289 289 289 285 281 290 292 293 292 292 294 293 295 295 298 298 300 300 300 296 297 297 297 297 295 294 295 295 295 295 296 296 296 296 296 296 297 297 297 298 298 298 298 298
288 288 288 288 288 289 290 289 289 289 289 288 289 285 289 290 290 291 291 291 291 291 291 294 299 301 302 301 297 295 295 295 296 292 294 295 295 294 294 295 295 295 295 295 295 296 296 296 296 297 297 297 298 298
289 290 290 289 289 289 289 288 287 287 287 288 288 288 289 290 290 291 290 290 290 289 293 299 302 303 300 300 301 295 294 297 294 294 294 294 293 293 294 294 294 294 294 294 294 295 295 295 295 296 297 297 297 297
290 289 289 289 288 289 289 287 286 287 287 287 286 289 290 290 289 289 290 290 289 290 290 296 295 299 298 301 301 295 294 293 293 293 293 293 293 293 293 294 293 293 294 293 294 293 293 294 296 295 295 296 296 296
290 288 288 288 288 288 287 287 287 287 288 288 289 289 288 288 288 289 289 288 289 289 289 292 294 294 295 295 294 294 293 292 292 292 292 292 292 292 292 292 292 292 292 293 293 293 293 294 294 294 294 296 296 294
289 288 288 288 288 287 286 287 287 287 287 288 288 288 287 287 288 288 287 287 289 290 289 288 289 289 289 292 294 293 292 292 291 291 291 292 292 293 294 293 292 292 292 292 292 293 293 293 293 293 293 293 294 293
288 288 289 289 288 286 286 286 286 286 286 286 287 286 286 287 287 286 285 286 286 285 286 286 287 288 290 292 292 292 291 291 291 290 290 290 292 292 293 293 294 294 294 294 294 294 294 294 296 297 298 296 294 293
289 288 289 288 286 286 285 285 284 285 285 286 286 285 285 285 285 285 285 284 284 284 284 285 286 287 290 291 291 291 291 292 291 290 290 290 290 291 291 291 291 291 291 292 292 292 291 291 291 291 292 291 291 291
288 288 287 285 285 284 283 283 283 283 282 284 285 285 284 284 285 286 285 284 283 283 285 285 286 287 288 289 291 291 291 291 291 291 290 290 290 290 290 290 291 291 291 291 291 291 291 291 291 291 291 290 290 290
287 286 286 284 283 280 282 282 282 282 283 284 284 284 283 283 285 285 284 283 282 284 286 286 286 287 288 289 288 289 289 290 289 289 289 290 290 290 290 290 291 291 291 291 291 291 291 290 290 290 290 290 289 287
286 283 283 274 281 279 270 271 272 280 284 284 285 284 283 283 283 284 284 282 282 283 284 285 286 286 286 286 287 288 288 289 288 288 288 289 289 289 290 290 291 291 291 292 291 290 290 289 287 286 285 285 285 285
276 281 277 278 275 276 274 276 275 278 280 283 283 282 282 284 282 283 282 280 280 281 282 283 284 285 286 286 287 288 288 289 288 288 287 288 289 289 290 291 291 290 289 291 290 288 286 285 285 285 285 285 285 285
274 275 281 281 281 281 278 280 280 278 276 278 280 281 282 283 282 281 280 280 281 281 282 283 285 286 286 286 286 287 288 288 289 288 287 288 289 289 290 291 290 289 288 286 285 285 285 285 285 285 284 284 284 284
279 279 275 280 280 280 272 272 274 277 279 280 280 278 278 280 281 278 279 280 281 282 283 284 285 286 286 286 285 285 286 287 287 287 288 288 289 289 290 289 286 285 284 284 285 285 285 284 284 284 284 284 284 284
280 280 280 276 279 277 276 274 277 279 279 279 278 278 277 277 277 279 280 281 282 283 283 284 285 285 285 285 285 285 285 286 286 287 288 287 286 286 285 284 284 284 284 284 284 284 284 284 284 284 284 284 284 284
279 280 279 276 270 272 276 277 279 279 279 279 278 278 277 277 277 279 280 282 283 284 285 285 285 285 285 285 285 285 285 286 285 287 287 285 284 283 283 284 284 284 284 284 285 285 284 284 284 284 284 284 284 284
279 279 279 277 274 277 278 279 279 279 280 280 280 280 278 278 279 280 281 282 283 284 284 284 285 285 285 285 285 285 286 285 284 284 284 284 283 283 283 284 284 284 285 285 285 285 284 284 284 284 283 283 283 283
278 278 277 272 277 278 279 280 280 280 280 280 279 279 279 279 279 279 279 280 281 282 283 283 284 284 284 284 284 285 285 284 284 283 283 283 284 283 284 284 284 284 285 285 285 284 284 284 283 283 283 283 283 283
277 277 276 277 277 277 277 278 278 277 277 276 276 277 277 277 277 278 278 279 280 281 281 282 283 283 283 284 284 284 283 283 282 282 283 283 283 284 284 284 284 284 284 284 284 284 284 284 283 283 283 283 282 282

GFSWCAN_850_thetae_186.txt.gz
Theta_e
291 291 290 289 291 291 291 291 291 292 292 292 292 293 293 293 293 293 291 292 294 293 293 293 293 293 294 294 294 295 294 294 295 296 298 298 298 299 300 300 300 301 301 303 305 308 308 304 301 303 302 304 303 302
291 290 291 291 291 290 290 291 291 290 291 291 291 291 291 292 292 292 293 292 293 294 294 293 293 293 293 293 293 293 294 295 296 301 299 299 301 298 299 301 299 301 301 301 303 304 303 304 304 306 304 304 303 303
290 289 290 291 290 290 290 291 291 291 290 291 291 292 291 291 292 292 293 293 293 293 292 291 291 292 292 292 292 293 293 293 294 294 295 297 298 301 301 301 300 300 301 302 302 303 303 304 305 305 305 305 305 303
289 289 289 290 290 290 290 290 290 290 291 291 291 291 292 292 292 292 292 292 292 293 292 292 291 291 291 291 292 293 293 293 294 295 295 296 296 299 303 301 301 300 300 300 301 302 303 304 305 306 306 305 304 303
289 289 289 290 290 290 290 290 290 290 289 290 290 290 291 291 291 291 291 290 290 291 291 291 291 290 290 291 291 292 294 293 293 295 296 296 297 298 298 300 300 301 300 302 303 303 303 304 306 305 304 303 304 303
289 289 289 290 290 290 290 289 289 289 289 289 290 289 290 290 290 290 290 289 289 290 291 292 292 292 293 293 292 292 292 293 294 295 296 296 297 300 302 300 300 301 302 302 302 303 303 303 303 304 303 303 303 302
288 288 288 288 289 290 289 289 288 289 289 289 289 289 289 290 291 291 290 290 290 292 292 291 290 290 292 291 292 293 294 292 293 294 295 297 298 299 302 303 302 303 303 303 303 302 300 302 304 303 303 303 303 302
288 288 288 289 289 289 289 288 288 289 289 290 290 289 290 290 290 290 290 290 289 290 290 289 287 290 291 293 295 296 297 296 296 296 298 298 299 301 303 302 302 302 302 303 304 300 302 303 303 302 302 302 302 302
288 288 288 288 288 289 290 290 290 290 290 290 290 290 291 290 291 289 288 288 288 290 290 290 286 288 291 294 295 297 297 298 298 299 301 301 302 302 302 302 303 303 303 303 304 302 301 301 302 302 302 302 302 301
288 288 286 286 288 289 289 290 289 289 290 290 290 290 290 289 289 288 289 290 291 291 290 289 290 290 291 294 297 297 298 300 301 300 301 302 302 302 302 302 303 303 303 303 303 300 301 301 301 302 302 301 301 301
285 285 286 286 287 288 288 289 289 290 290 289 290 290 289 289 290 289 289 289 291 291 292 292 291 291 292 293 294 296 299 300 303 300 302 302 302 301 302 302 303 303 303 304 303 303 302 302 302 302 301 301 301 300
286 286 285 286 288 288 289 289 289 290 290 289 289 289 289 289 288 286 282 285 291 293 294 293 294 293 293 293 296 297 299 300 302 299 302 301 299 302 303 302 303 304 304 302 302 302 302 301 301 301 301 300 300 300
287 287 287 287 288 288 289 288 289 290 290 290 289 289 288 287 287 286 279 282 290 294 296 296 296 297 295 295 297 299 300 302 297 298 298 297 297 297 298 300 302 302 301 301 301 301 301 301 300 300 300 300 300 300
287 287 288 288 288 288 287 288 289 289 290 289 288 286 286 277 283 282 283 290 291 292 293 292 296 298 297 297 299 301 298 297 295 295 296 291 295 296 297 297 298 299 299 300 300 300 299 299 299 299 299 299 299 299
288 288 288 288 288 288 288 289 289 290 290 289 288 284 280 286 289 290 290 290 291 291 291 290 292 296 299 299 300 297 297 295 295 297 295 294 295 295 296 296 296 296 297 297 297 297 297 297 298 298 298 298 298 298
287 288 288 288 288 288 289 289 289 289 289 289 288 286 286 286 288 289 289 290 290 291 290 290 292 299 300 301 299 298 294 295 296 293 294 294 294 295 295 295 295 295 295 296 296 295 296 296 297 297 297 297 297 297
288 288 290 289 289 289 289 289 288 288 288 287 285 287 286 287 287 288 290 290 290 289 290 293 297 299 300 295 297 294 295 296 294 293 294 294 294 294 294 295 295 295 294 294 294 294 295 295 296 296 297 296 297 297
290 291 289 289 289 289 289 288 287 287 287 286 285 286 287 289 290 289 289 289 289 289 289 292 290 295 299 299 299 295 294 293 293 293 293 293 293 293 293 294 293 293 293 293 294 294 295 295 296 296 296 296 296 296
290 290 289 289 288 288 287 287 286 286 286 286 287 288 288 288 288 288 288 288 288 288 288 290 292 291 292 293 292 294 292 292 292 291 291 291 292 292 292 292 292 292 292 292 293 293 293 294 294 294 294 295 295 295
290 288 287 288 288 288 287 286 286 286 286 287 287 288 287 287 287 287 287 287 287 289 289 287 288 288 288 288 290 292 292 292 291 291 290 290 290 291 290 291 291 291 291 291 292 292 292 292 292 292 293 293 294 293
289 288 287 288 288 287 286 286 286 286 286 286 286 286 286 286 287 286 285 285 285 284 282 285 285 286 288 290 291 291 291 292 291 291 290 290 291 291 291 291 291 291 291 291 291 291 292 291 291 291 292 293 292 291
289 288 288 288 288 286 285 284 284 285 284 285 285 285 285 284 285 285 284 284 283 283 283 283 285 286 288 289 290 291 291 292 291 291 291 291 291 292 292 292 293 293 293 294 294 294 294 294 294 293 292 291 291 290
289 288 288 286 285 284 283 283 283 283 278 283 285 283 283 284 285 285 284 283 283 282 284 285 285 286 287 288 289 290 290 291 291 290 291 291 291 291 291 292 292 292 292 291 291 290 290 290 290 290 290 290 289 289
288 287 286 285 283 280 281 282 281 281 283 282 282 283 282 283 285 284 283 283 282 283 285 286 286 286 287 288 289 289 289 290 290 290 290 290 290 290 290 290 290 290 290 290 290 290 290 290 289 290 289 289 288 286
286 283 283 276 281 280 270 270 270 275 280 283 283 282 281 283 282 282 283 281 281 282 283 284 285 285 285 286 287 288 289 290 290 289 289 290 290 290 290 290 290 290 290 290 289 290 289 288 286 285 285 285 285 285
276 280 277 278 275 276 272 275 273 277 280 283 283 282 282 281 279 280 280 279 280 280 281 282 283 284 285 286 286 287 288 288 288 289 288 288 289 290 290 290 290 289 289 290 289 287 285 285 285 285 285 284 284 285
274 275 280 280 280 280 278 279 279 278 276 279 281 281 283 281 279 280 279 279 280 281 281 282 283 284 284 285 286 287 288 288 289 289 288 288 289 289 290 290 290 289 287 286 285 285 285 285 285 285 285 284 284 284
279 279 275 279 279 279 271 271 275 277 278 279 279 278 278 280 279 278 278 280 281 281 282 283 283 284 284 285 286 287 287 288 289 289 289 289 289 289 289 288 286 284 284 284 284 284 284 284 284 284 284 284 284 284
279 279 279 275 277 277 275 273 276 278 278 279 277 277 277 276 276 278 279 281 282 282 283 283 283 283 284 285 285 286 286 287 288 288 289 288 288 287 285 284 284 284 284 284 284 284 284 284 284 284 284 284 284 284
278 279 278 275 270 272 276 277 278 278 278 278 277 277 277 276 277 278 280 281 282 283 283 284 284 284 284 285 285 285 286 286 286 287 288 287 285 284 284 284 284 284 284 284 284 284 284 284 284 284 284 284 283 283
278 279 278 277 274 277 278 278 278 279 279 279 279 279 278 278 278 279 280 281 282 282 283 284 284 284 284 284 284 285 285 285 286 285 285 284 283 283 283 283 283 284 284 284 284 284 284 283 283 283 283 283 283 283
278 278 277 272 276 277 279 279 279 280 280 280 279 279 279 279 279 279 280 281 281 282 283 283 283 284 284 284 284 285 284 284 284 283 283 283 283 283 283 284 284 284 284 284 284 284 283 284 283 283 283 283 283 283
277 277 276 277 276 277 277 278 277 277 278 277 276 277 277 277 278 278 279 280 280 281 282 282 283 283 284 284 284 284 283 282 282 282 283 283 283 284 284 284 284 284 284 284 284 284 284 284 284 283 283 283 283 283

GFSWCAN_850_thetae_189.txt.gz
Theta_e
291 292 291 290 289 290 291 291 291 291 291 292 292 292 292 292 292 293 293 292 293 292 292 292 292 293 293 294 292 294 292 292 294 294 298 298 297 296 297 297 298 298 300 301 303 305 305 304 301 304 303 303 303 303
291 291 290 291 291 290 290 291 291 291 291 291 291 291 291 291 291 292 292 292 293 292 292 292 293 293 293 293 293 293 293 293 294 299 296 296 299 296 296 297 296 298 299 298 301 301 301 302 302 304 303 303 302 303
290 291 290 290 291 291 291 291 291 290 290 291 291 291 291 292 290 291 292 292 292 292 293 293 293 292 292 292 291 293 293 293 293 293 294 293 293 294 295 300 299 297 299 298 299 300 301 302 302 303 304 304 304 304
289 289 289 289 289 290 291 290 290 290 290 290 290 290 290 291 292 292 292 291 291 291 291 291 290 291 291 291 290 291 291 292 293 293 293 291 292 295 293 295 300 300 299 299 298 299 301 302 302 303 303 304 304 303
288 289 289 289 289 289 290 290 290 289 289 290 290 290 290 290 291 292 291 291 290 290 290 290 290 289 289 289 289 290 291 292 292 293 294 294 294 294 294 294 295 297 299 300 301 301 301 302 303 302 303 303 303 302
288 288 289 289 290 290 290 290 290 289 290 290 289 289 290 290 290 291 291 290 289 290 291 287 290 290 290 291 292 291 291 292 292 292 293 293 294 295 297 296 297 297 297 297 298 299 300 301 302 302 303 303 303 302
288 288 289 289 288 289 289 289 289 289 289 289 289 289 289 289 290 291 290 290 290 290 290 288 289 290 290 291 291 291 292 291 291 292 293 293 296 296 296 296 296 297 299 300 299 299 300 301 301 303 303 302 302 302
288 288 288 288 288 289 289 289 288 289 288 287 289 290 290 289 290 291 291 290 291 291 291 290 287 289 289 290 291 292 294 292 292 293 294 294 294 295 296 296 297 298 299 301 301 301 302 302 303 302 301 302 302 302
288 288 288 288 287 287 288 290 290 290 290 290 290 290 291 291 290 289 289 289 289 290 289 288 285 284 289 291 292 294 295 297 296 294 295 296 296 297 296 296 296 298 300 300 301 301 302 302 302 300 301 301 301 302
286 286 288 288 286 287 289 289 289 289 289 289 290 289 290 290 290 289 289 289 290 289 290 288 288 287 289 291 293 294 295 296 296 297 298 298 298 298 298 300 299 300 300 301 302 302 303 302 300 300 301 301 301 302
285 285 285 285 286 286 288 289 289 289 288 290 289 289 289 289 290 289 289 288 289 288 291 290 289 289 289 289 289 291 293 296 298 299 300 301 301 300 300 300 300 302 302 302 302 302 303 303 304 302 301 301 301 301
285 286 286 287 285 287 288 289 289 289 290 289 289 289 289 289 289 284 281 283 287 290 292 293 292 292 291 291 292 294 295 296 296 299 301 301 300 298 299 300 300 300 301 301 302 303 302 302 302 301 301 300 300 300
287 288 286 286 285 287 288 289 289 288 290 290 290 289 289 287 283 282 277 279 283 290 291 291 290 293 294 292 294 296 297 298 296 300 298 298 296 297 297 298 301 301 301 302 302 301 301 301 301 301 300 300 300 300
288 288 288 287 287 288 288 288 287 289 290 290 288 286 284 275 283 281 281 285 290 290 290 291 290 292 294 295 295 299 297 297 299 298 297 291 294 295 296 296 297 299 300 301 300 300 301 301 300 300 300 299 299 299
287 287 286 287 288 288 288 287 289 289 289 289 287 285 280 285 285 288 288 290 290 290 291 290 289 290 294 298 296 298 297 295 296 297 293 294 295 295 295 296 296 297 298 299 299 299 299 299 298 298 298 298 298 298
287 288 287 288 288 288 288 288 289 290 289 289 288 283 284 284 285 288 289 290 289 290 290 289 290 292 298 298 299 298 295 296 296 293 294 294 294 294 295 295 295 296 296 296 297 297 297 297 297 297 297 297 297 297
287 287 287 288 289 289 289 289 289 289 288 287 285 287 286 286 286 287 288 289 289 289 288 290 292 296 294 300 297 295 294 295 293 293 294 294 294 294 294 294 294 294 294 294 295 295 295 296 296 296 296 296 296 297
287 287 290 289 290 289 289 289 288 287 286 286 285 287 287 287 287 287 288 288 288 288 289 290 290 290 295 295 296 292 290 292 292 292 292 292 292 292 293 293 293 293 293 293 294 294 295 294 295 295 295 295 296 296
289 290 289 289 289 289 287 287 286 286 286 285 286 286 287 287 288 288 288 288 288 287 287 288 289 291 291 290 290 288 288 291 291 291 290 291 291 291 292 292 291 292 292 293 293 293 293 294 294 294 294 295 295 296
289 289 288 289 288 287 287 286 285 284 284 286 286 286 287 287 287 287 287 286 286 287 288 287 287 287 286 286 286 287 289 291 291 290 290 289 290 290 290 290 290 291 291 291 291 292 292 292 292 292 293 294 295 295
289 288 288 288 288 287 287 286 286 285 285 285 286 286 286 286 286 286 285 285 285 284 284 285 284 285 285 286 288 290 290 291 291 290 289 290 290 290 290 289 289 290 290 290 291 290 291 291 291 291 292 292 292 292
289 288 287 287 288 287 285 284 284 284 283 284 284 285 284 284 285 285 284 284 283 283 282 282 284 285 285 287 288 289 289 290 290 290 290 290 290 290 290 290 290 290 290 290 290 290 290 291 292 291 291 290 290 290
288 288 287 287 286 285 283 283 283 283 278 282 284 282 282 283 284 285 283 283 282 282 282 283 285 285 286 286 288 289 290 290 290 290 290 291 291 291 291 291 292 292 292 291 292 292 292 292 291 291 290 290 289 289
288 287 286 285 284 280 281 281 281 281 282 277 279 280 281 283 284 283 281 282 282 282 283 284 285 286 287 287 288 288 288 289 289 290 290 290 290 290 291 291 291 291 291 290 289 289 288 288 288 289 289 288 287 286
285 283 283 278 281 280 270 269 268 272 275 278 279 280 280 282 280 280 281 281 281 281 282 283 284 284 285 285 286 287 288 289 290 289 289 290 290 290 290 289 289 289 289 289 288 288 288 287 286 285 285 285 285 285
279 281 277 278 276 276 272 275 271 273 277 279 280 282 282 280 279 279 280 279 279 280 280 281 282 283 284 285 286 287 287 288 289 289 288 289 289 290 289 289 289 288 288 289 288 286 285 285 285 285 284 284 284 285
274 275 280 280 280 279 278 278 279 277 275 277 278 279 280 279 279 279 278 279 279 280 281 281 282 282 283 285 286 287 288 289 289 289 288 289 289 289 289 289 289 287 286 285 285 285 285 285 285 285 285 284 284 284
280 279 275 278 279 278 272 271 272 275 277 279 279 278 280 279 279 277 278 279 280 281 281 282 282 283 283 284 285 286 287 288 289 289 289 289 288 288 288 286 284 284 284 284 284 284 284 284 284 284 284 284 284 284
279 279 279 275 276 276 275 273 275 278 278 278 277 277 276 276 276 278 279 280 281 282 282 283 283 283 283 284 284 285 285 286 288 289 290 288 287 285 284 284 284 284 284 284 284 284 284 284 284 284 284 284 283 283
278 278 278 274 270 272 276 277 277 277 277 277 277 277 277 276 277 278 279 280 281 282 283 283 283 284 284 284 284 285 285 286 287 289 289 288 285 284 284 284 284 284 284 284 284 284 283 284 284 284 283 283 283 283
278 278 278 277 275 277 277 278 278 278 278 278 278 278 277 278 278 279 280 281 281 281 282 283 284 284 284 284 284 285 285 286 286 287 287 284 283 283 283 283 283 283 283 284 284 284 284 283 283 283 283 283 283 283
277 278 277 271 276 277 278 279 279 279 279 279 279 278 278 278 278 279 280 280 281 282 283 283 284 284 284 284 285 285 285 285 285 284 283 283 283 283 283 284 284 284 284 284 283 283 283 283 283 283 283 283 283 283
276 277 276 276 276 276 277 278 277 277 277 277 277 277 277 277 277 278 279 280 280 281 282 283 283 284 284 284 284 284 284 283 282 282 283 283 283 284 284 284 284 284 284 284 284 283 284 283 284 283 283 283 283 283

GFSWCAN_850_thetae_192.txt.gz
Theta_e
292 292 292 290 289 290 292 293 292 291 291 291 291 292 292 292 292 292 292 292 292 292 291 291 292 292 293 293 292 293 291 291 293 293 297 297 296 295 296 296 295 296 299 299 302 303 302 302 302 303 302 302 301 302
290 291 291 291 291 291 289 290 291 291 291 290 290 290 291 291 291 291 291 291 292 292 292 292 292 292 292 292 292 293 292 292 293 296 294 296 297 294 294 296 294 296 296 296 299 299 299 301 302 303 302 301 302 302
291 291 291 291 290 291 291 291 291 291 291 290 290 290 291 292 292 292 291 292 292 292 292 292 291 292 292 291 292 292 292 292 292 292 292 291 292 293 293 294 298 297 297 297 297 297 298 299 299 300 302 303 302 302
289 289 290 290 290 290 291 291 291 290 290 291 290 290 290 290 291 292 292 292 291 291 289 289 289 289 289 289 290 291 291 292 292 292 292 288 292 292 289 291 292 293 297 297 298 298 299 300 301 301 302 301 301 302
289 289 289 289 289 289 289 289 290 290 289 288 290 290 289 290 290 290 291 292 291 291 288 289 289 290 290 289 289 290 291 291 291 292 292 292 293 292 292 292 293 294 295 295 296 297 299 300 301 301 300 299 300 301
289 288 289 289 289 289 290 289 290 290 289 289 289 289 289 289 290 291 290 290 290 291 291 287 290 290 290 289 290 290 291 290 290 291 291 291 292 293 293 293 293 293 293 294 296 297 297 298 297 297 297 299 300 302
288 288 288 289 289 288 288 288 289 289 289 289 289 289 289 289 290 290 290 290 290 290 290 289 288 290 289 290 290 291 291 291 291 291 292 291 292 293 293 293 293 293 295 295 295 295 295 296 296 299 299 301 302 302
288 288 288 288 288 288 289 288 289 289 290 289 288 289 289 290 290 290 290 290 290 291 291 290 286 288 289 289 289 290 291 290 290 291 292 292 292 292 293 293 294 294 294 294 295 296 297 298 299 300 300 302 302 301
288 288 288 288 287 287 288 287 289 290 290 290 290 290 290 290 290 290 290 289 290 290 289 288 285 283 288 289 289 291 291 293 292 292 293 294 294 294 294 294 294 294 295 295 296 296 297 298 300 301 301 302 302 301
286 286 287 288 288 287 286 288 289 288 288 288 289 289 289 290 290 290 289 289 289 289 289 288 287 285 288 288 290 290 291 289 293 294 294 295 295 295 295 295 295 296 295 296 295 295 297 299 300 301 302 302 300 300
287 287 287 287 286 285 286 287 288 289 288 288 289 288 289 289 289 289 289 287 287 287 289 289 289 289 289 289 289 289 287 288 291 294 296 297 299 298 298 298 297 296 296 297 298 298 300 302 303 303 303 302 300 301
285 285 285 285 286 285 285 287 288 289 288 289 289 289 289 289 289 283 276 281 285 288 290 291 291 290 290 290 290 290 292 294 293 295 299 301 300 298 298 298 298 299 297 298 299 300 301 301 301 301 301 301 300 300
286 286 286 286 285 285 286 287 288 288 288 289 289 289 289 286 281 281 277 279 278 288 290 290 287 290 292 292 292 293 294 294 294 297 300 298 295 295 295 295 298 299 299 299 300 301 301 301 301 300 300 300 300 300
287 287 287 286 287 287 288 288 288 287 289 289 289 285 280 277 281 281 282 282 287 290 290 290 290 290 290 292 291 295 295 296 299 298 298 294 292 293 294 295 296 298 299 300 300 300 300 299 299 300 299 299 299 299
286 286 288 288 287 288 288 289 288 288 289 289 288 283 280 284 284 286 287 286 289 290 289 290 288 289 290 292 295 295 297 298 298 298 294 294 293 293 294 295 295 296 297 297 299 299 299 299 299 299 299 298 298 298
287 287 287 287 287 288 289 289 289 288 289 289 287 284 284 282 284 286 287 287 288 289 289 289 287 288 291 295 298 298 297 296 294 293 293 292 292 293 294 293 294 295 295 297 297 298 298 298 298 297 297 297 297 297
287 287 287 287 287 289 289 289 288 289 289 288 285 287 286 285 286 287 287 288 289 289 284 287 287 291 291 294 297 294 293 291 290 289 292 292 292 292 293 292 293 293 293 294 295 295 296 296 296 296 296 296 296 296
287 286 287 289 289 289 290 289 289 287 286 287 285 287 286 287 287 287 286 287 288 288 288 287 289 287 291 293 293 290 288 287 288 289 291 291 291 291 292 291 292 292 292 293 293 294 295 295 295 295 295 294 295 295
286 287 289 289 289 289 288 287 287 286 286 285 285 285 285 286 286 287 287 288 288 288 287 287 286 287 291 289 287 286 286 286 287 289 290 290 290 290 291 290 291 291 291 292 293 293 293 294 294 294 293 294 294 294
288 289 289 289 289 288 287 286 285 284 283 285 285 285 286 287 287 287 287 286 286 286 286 284 286 286 285 285 285 285 286 287 289 290 289 289 289 289 289 289 290 290 291 290 291 291 292 292 292 292 293 295 296 294
289 288 289 288 287 287 287 286 285 284 285 285 285 285 286 285 285 286 285 285 284 284 282 284 284 284 285 285 285 286 287 288 289 290 289 289 289 289 289 288 289 289 290 290 290 289 291 291 291 292 293 295 295 293
288 288 288 287 287 287 286 285 284 284 283 283 284 284 284 284 284 284 284 284 283 283 283 282 282 283 284 285 285 286 287 288 289 290 289 289 289 289 289 289 289 289 289 289 289 289 289 289 289 290 293 291 290 290
288 288 287 287 287 285 283 283 283 283 275 282 283 281 282 283 284 284 283 283 282 281 281 282 283 284 285 285 286 287 288 288 288 289 289 289 289 289 289 289 290 290 289 288 290 290 289 290 291 291 290 290 289 289
287 287 287 287 285 280 281 281 280 280 281 277 276 279 280 283 283 282 277 282 281 281 282 282 283 285 286 286 286 287 287 287 288 288 288 289 289 289 289 290 290 291 291 290 291 291 290 290 289 288 288 288 287 286
287 284 283 279 281 280 271 269 270 271 273 271 277 279 279 282 279 277 279 280 280 280 281 282 283 283 283 285 285 286 287 288 288 288 288 289 289 289 289 290 290 290 290 289 288 288 287 287 286 285 285 285 285 285
282 281 278 278 276 275 273 275 270 272 272 276 279 281 282 278 278 279 279 278 279 279 280 280 281 282 283 283 285 286 287 287 288 288 288 288 289 290 289 288 288 287 287 288 288 286 285 284 284 284 284 284 284 285
278 275 279 279 279 279 277 277 278 276 275 276 278 278 279 279 278 278 278 278 278 280 280 281 281 281 282 283 285 286 287 288 289 289 288 289 289 288 289 288 288 286 285 285 285 285 284 284 284 284 284 284 284 284
280 279 275 278 278 278 272 271 270 273 276 278 279 278 278 278 279 277 278 279 280 281 281 281 282 282 283 283 284 285 286 287 288 288 288 288 288 288 287 285 284 283 283 284 284 284 284 284 284 284 284 284 284 284
279 279 279 274 276 276 276 273 275 277 277 278 277 278 276 276 276 277 279 279 280 281 282 283 283 283 283 283 284 285 285 286 288 289 289 286 284 284 284 284 283 283 284 284 283 283 284 284 284 284 284 284 283 283
277 278 278 274 271 272 276 277 277 277 277 277 277 277 277 277 277 278 279 280 281 282 282 282 283 283 284 284 284 285 286 286 287 289 288 285 284 283 283 283 284 284 284 284 284 283 283 284 284 284 283 283 283 283
277 278 278 276 275 276 277 277 277 277 277 278 278 277 277 278 278 279 280 280 281 281 282 283 283 283 284 284 284 284 286 286 287 287 285 284 284 283 283 283 283 283 283 284 283 283 283 283 283 283 283 283 283 283
277 277 277 271 276 276 277 278 278 278 278 278 278 278 278 278 278 279 280 280 281 282 282 283 283 284 284 284 284 284 285 286 286 285 283 283 283 283 283 283 283 283 283 283 283 283 283 283 283 283 283 283 283 282
276 276 276 276 276 276 277 278 277 277 277 277 277 277 277 277 278 278 279 280 280 281 282 282 283 283 283 283 283 284 284 284 283 283 283 283 283 283 283 283 283 283 283 283 284 284 284 284 284 283 283 283 282 282

GFSWCAN_850_thetae_195.txt.gz
Theta_e
292 291 290 289 290 291 291 291 291 292 292 292 291 291 291 291 291 291 291 291 292 291 291 291 291 291 292 293 290 292 291 290 293 294 296 296 296 293 295 294 295 298 299 299 301 302 301 300 301 303 302 301 300 300
293 293 292 291 291 290 289 289 291 291 291 291 290 290 290 291 292 291 291 291 292 292 291 291 291 291 292 292 292 292 291 291 292 291 295 294 296 294 293 295 293 294 293 295 297 298 297 299 299 299 298 298 299 300
291 291 291 291 291 291 292 291 291 291 291 291 291 290 289 290 292 293 292 291 291 291 290 290 290 291 290 291 292 292 292 292 292 292 291 289 288 291 291 292 296 296 295 295 296 296 296 298 298 298 298 299 300 300
291 291 291 290 290 290 290 292 292 291 290 290 290 290 290 290 291 291 291 292 291 291 289 289 289 289 289 289 289 290 291 291 291 292 292 287 288 291 288 290 291 292 292 292 293 293 295 295 296 297 298 300 300 300
289 288 289 289 289 289 289 289 289 290 289 288 289 289 289 289 290 290 290 290 290 291 290 289 290 290 290 290 290 289 289 290 291 291 289 289 291 290 290 290 291 291 291 291 292 293 293 294 294 295 297 297 298 297
288 288 289 289 289 290 290 289 288 289 289 289 288 289 289 289 289 290 290 290 290 290 291 291 290 290 290 289 289 289 289 289 290 290 290 290 290 291 288 290 291 291 292 293 292 293 293 293 294 295 295 295 297 298
289 289 288 289 289 289 289 288 288 288 288 289 289 289 288 290 290 290 289 290 290 290 290 289 288 289 289 289 289 289 290 289 289 290 291 290 291 292 291 291 291 291 292 292 292 292 292 293 293 294 295 296 297 298
288 288 288 288 288 288 288 289 288 289 289 289 288 287 287 290 290 290 290 290 290 290 290 290 285 287 289 289 289 289 290 288 290 290 291 290 290 291 291 291 291 291 292 292 292 292 292 293 293 294 294 295 297 299
287 288 288 288 288 287 287 287 288 290 289 290 290 290 289 290 290 290 290 290 290 290 290 287 284 283 287 288 289 289 289 288 290 289 290 290 290 291 291 291 291 291 292 292 292 293 293 292 293 293 294 296 297 298
287 288 288 288 288 288 286 288 289 289 288 287 287 289 289 289 290 290 289 289 289 290 290 288 287 284 288 288 289 289 288 289 285 290 291 291 292 292 292 292 293 293 293 294 293 293 293 294 294 294 295 297 297 298
286 286 286 287 287 286 285 286 288 288 288 287 289 288 289 289 289 289 289 287 286 285 288 288 287 287 289 287 289 289 290 288 291 292 292 295 296 295 295 294 294 294 295 294 294 295 295 295 296 296 297 299 301 302
285 285 285 285 285 286 285 286 287 288 287 287 288 289 289 289 288 281 274 281 283 286 288 290 290 290 290 290 290 289 290 291 291 292 296 298 297 294 293 293 294 295 295 296 297 295 295 296 297 299 302 302 301 301
285 285 286 286 286 285 285 285 287 288 288 287 288 289 288 285 280 280 279 280 278 285 289 290 286 289 290 291 291 291 292 292 293 296 298 297 294 293 292 293 294 295 296 298 297 296 296 298 299 301 301 299 299 299
287 287 286 286 286 288 287 288 289 288 287 288 288 282 281 273 279 280 281 281 286 288 289 289 289 290 289 289 291 293 293 293 297 299 297 294 292 292 292 293 294 294 296 297 297 298 298 299 300 299 299 299 299 299
285 285 286 287 288 287 287 288 288 289 288 289 287 283 279 284 284 285 286 286 287 287 288 288 288 288 287 289 291 293 295 297 296 294 292 291 289 292 291 292 293 293 294 296 297 298 299 298 298 298 298 298 298 298
287 288 287 287 287 287 288 288 289 289 288 288 287 284 284 282 284 286 286 286 287 288 288 288 288 286 289 291 293 296 295 293 292 290 289 289 289 290 290 291 292 292 293 295 296 296 296 297 297 297 297 297 297 297
287 287 287 287 287 288 289 288 289 288 289 287 285 287 285 285 285 287 286 287 288 288 282 284 286 286 285 289 294 291 290 289 288 288 288 288 289 289 289 290 291 291 292 293 295 295 295 295 295 296 296 295 296 296
286 287 286 287 289 289 289 289 288 288 286 287 285 288 286 287 287 287 287 286 287 288 288 285 287 285 287 287 290 288 286 286 286 286 287 288 289 289 289 290 291 291 291 292 293 293 294 294 295 294 294 294 294 294
287 286 287 289 288 289 289 288 288 286 286 285 285 285 285 285 286 286 286 286 287 287 288 287 285 285 287 287 285 285 285 285 285 286 287 289 289 288 288 289 289 289 291 291 292 292 293 293 293 292 292 293 294 293
287 287 289 289 289 288 287 286 285 284 282 284 284 285 285 286 286 287 287 287 287 287 286 284 285 286 284 284 284 284 285 285 285 286 288 289 289 288 288 288 288 288 289 289 290 290 290 291 290 291 293 293 294 294
288 288 289 289 288 287 286 286 285 284 283 284 284 284 285 285 285 285 285 285 285 284 282 284 284 284 283 284 285 285 285 285 285 286 288 289 288 288 287 288 287 288 288 289 289 289 290 290 290 292 293 294 293 294
288 288 288 287 287 287 286 285 284 284 283 283 283 283 283 283 284 284 283 283 283 283 283 282 282 282 283 285 285 285 285 286 287 287 288 288 288 288 287 288 288 287 288 288 288 288 289 290 291 292 292 291 290 290
288 288 287 287 286 286 283 283 283 282 275 281 282 280 282 282 283 283 283 282 282 281 281 281 282 283 283 284 285 285 286 286 287 287 287 287 288 287 288 287 288 289 288 287 288 288 289 291 290 290 289 290 290 290
287 287 287 287 286 281 282 281 280 280 280 275 272 276 279 282 282 282 278 281 281 281 280 281 282 283 284 285 285 285 285 286 286 286 287 287 287 287 287 287 288 289 289 289 289 290 290 290 290 290 289 289 287 286
287 284 284 280 281 280 272 268 271 272 273 268 274 274 279 282 279 277 277 280 280 280 280 281 281 281 281 283 285 285 285 286 286 286 286 286 286 287 287 288 288 288 289 290 290 290 288 287 287 286 285 285 285 285
280 282 279 279 276 275 273 274 270 271 270 271 276 280 281 277 278 279 278 278 279 279 279 279 280 281 282 282 283 285 286 286 286 287 287 287 288 288 288 288 288 288 288 287 287 286 284 284 284 284 284 284 284 285
280 276 279 279 279 279 277 277 277 275 272 274 276 278 278 279 278 278 278 278 278 279 280 280 280 280 281 282 283 284 285 286 287 287 287 288 288 287 287 287 287 286 285 285 284 284 284 284 284 284 284 284 284 284
280 279 276 278 278 277 272 271 269 271 273 278 278 277 278 278 279 278 278 279 279 280 281 281 281 282 282 283 283 284 284 284 285 287 287 287 287 286 285 284 283 283 283 284 284 284 284 284 284 284 284 284 284 283
279 279 279 274 276 276 277 274 275 277 277 277 276 278 277 277 277 277 278 279 280 280 281 282 283 283 283 283 284 285 285 285 286 287 287 284 283 283 283 283 283 283 283 283 283 283 284 284 284 284 284 283 283 283
277 278 278 274 272 272 277 277 277 277 277 276 277 277 277 277 277 278 279 280 281 281 281 281 282 283 283 283 284 285 286 286 286 285 284 284 283 283 283 283 283 283 283 283 283 283 283 283 283 283 283 283 283 283
277 278 278 276 276 276 277 277 277 277 277 277 277 277 278 278 278 278 279 280 280 281 282 282 283 283 283 284 284 284 286 286 286 284 283 284 283 283 283 283 283 283 283 283 283 283 283 283 283 283 283 283 283 283
277 277 277 271 275 276 277 277 278 277 278 278 278 278 278 278 278 278 279 280 280 281 282 282 283 283 283 283 284 285 285 285 285 284 284 283 283 283 283 283 283 283 283 283 283 283 283 283 283 283 283 283 283 283
275 276 276 276 275 275 276 277 277 277 277 277 277 277 277 277 278 278 279 279 280 281 281 282 282 282 282 282 283 283 284 284 283 283 283 283 283 283 283 283 283 283 283 283 283 283 284 284 284 283 283 283 283 282

GFSWCAN_850_thetae_198.txt.gz
Theta_e
294 294 294 293 294 295 295 295 294 294 291 291 292 291 291 291 291 291 291 291 291 291 291 291 291 292 293 293 293 292 293 293 294 296 297 296 297 296 296 296 298 300 301 302 302 302 302 301 301 303 301 299 299 299
292 292 291 291 291 291 292 292 292 293 292 291 291 290 290 290 291 292 291 291 291 291 291 291 291 291 291 291 292 292 292 291 292 294 295 295 296 294 296 296 295 296 298 298 300 300 300 299 298 297 297 297 297 297
293 293 292 292 291 290 289 289 289 290 290 290 291 290 289 289 291 292 292 292 291 291 291 290 290 290 291 291 291 292 292 292 292 292 292 293 293 292 292 294 295 296 296 298 297 297 297 297 296 296 296 297 296 298
293 292 291 291 290 291 292 292 291 291 291 290 290 290 290 290 291 291 291 291 292 291 291 291 289 289 290 290 289 290 290 290 291 291 292 293 293 292 292 292 293 293 294 294 294 294 293 294 295 296 296 295 295 296
291 291 291 290 290 290 290 291 291 291 290 289 289 288 288 289 290 289 290 290 290 291 292 291 290 290 290 290 290 289 289 291 291 291 292 292 292 292 292 292 292 292 292 292 292 292 293 293 293 292 293 293 294 295
288 288 289 289 289 289 289 289 290 289 288 288 287 287 288 289 289 289 290 290 290 290 291 292 290 290 290 290 290 289 289 289 290 290 290 291 291 291 292 292 291 291 291 291 292 292 292 292 292 292 292 292 293 293
289 289 289 289 289 289 289 289 288 288 288 287 288 288 289 289 289 290 289 290 290 290 290 290 291 289 289 289 289 289 289 289 289 290 290 291 291 291 292 292 291 291 291 291 291 291 292 292 292 292 292 293 293 294
289 289 289 289 289 289 288 288 288 287 289 289 289 288 288 288 290 290 290 290 290 290 290 290 291 289 289 289 289 289 289 288 289 290 290 291 290 291 291 291 290 290 291 291 291 291 291 291 291 292 292 292 292 293
288 288 288 289 288 288 287 287 287 289 288 290 290 290 289 289 290 289 290 289 289 289 290 289 289 290 287 288 288 289 288 288 289 290 290 290 291 291 291 291 291 291 291 291 291 291 291 291 291 292 292 292 292 293
287 288 288 288 287 287 286 287 289 289 288 287 287 288 289 289 290 289 289 289 289 289 290 289 287 289 288 288 289 289 289 290 291 290 290 291 291 290 290 290 291 291 292 292 292 292 291 292 292 292 293 293 293 293
287 287 287 287 287 287 286 286 287 287 287 287 288 288 288 288 289 289 288 287 286 287 288 288 287 289 289 289 290 290 291 291 291 292 291 293 294 295 293 293 292 292 293 294 293 293 293 293 293 293 294 294 294 295
287 287 287 286 285 285 285 285 286 287 287 287 288 288 288 288 288 286 283 282 284 288 288 289 290 289 289 290 290 290 290 290 291 292 294 296 295 292 291 290 292 291 291 292 292 293 294 295 294 294 294 295 298 301
285 285 285 285 285 285 285 285 286 287 287 287 287 288 287 285 283 285 284 285 285 286 287 289 289 289 289 290 290 291 291 292 292 295 296 296 293 291 290 290 291 290 291 293 294 296 295 296 294 294 295 298 302 302
286 286 285 285 285 287 286 286 288 288 287 287 287 284 285 282 284 285 286 286 286 286 287 288 288 289 289 290 291 290 293 293 296 297 294 293 290 289 289 290 289 289 291 293 295 294 295 295 295 297 300 300 298 298
286 285 285 286 287 287 287 288 288 288 287 287 287 285 283 284 284 285 285 285 287 287 286 287 287 288 289 289 290 292 294 296 294 293 291 289 288 288 288 289 289 289 291 292 295 296 297 298 299 299 297 297 297 297
285 286 287 287 287 287 287 288 288 288 288 288 286 285 283 283 284 285 285 285 287 287 288 287 288 288 289 291 292 292 294 292 291 289 288 288 287 287 287 288 288 289 290 292 294 296 296 298 296 296 296 296 297 297
288 287 287 287 287 287 288 288 288 289 288 288 286 286 285 285 286 286 286 286 287 287 287 286 288 288 288 290 292 293 290 288 287 287 287 286 286 287 288 288 288 289 290 291 293 295 295 296 295 296 296 295 296 296
288 286 286 286 288 288 288 289 288 288 287 287 285 287 286 286 287 287 287 287 287 287 287 286 286 288 289 288 291 287 286 285 285 285 285 286 287 289 288 287 288 288 290 290 292 293 293 293 294 294 294 294 295 294
286 286 286 287 289 288 288 288 288 287 286 285 285 286 285 285 286 286 285 285 285 287 287 287 286 286 288 287 285 284 284 284 284 284 285 286 288 288 288 287 287 288 289 290 290 291 291 292 292 292 293 293 293 292
287 287 287 288 289 288 288 286 286 285 282 283 284 284 285 285 286 286 286 286 286 286 286 286 286 286 284 283 283 283 284 284 283 284 285 286 288 288 287 287 286 287 287 287 288 289 290 290 291 291 292 292 292 291
286 286 288 289 288 288 286 286 285 283 282 283 283 283 285 284 284 284 285 285 285 284 283 284 284 283 284 284 284 284 284 284 283 284 284 286 287 287 287 286 287 287 287 287 288 288 289 289 289 290 291 291 292 292
287 288 288 288 287 287 286 284 284 283 282 282 282 282 282 283 283 283 283 283 283 283 282 282 282 282 283 284 284 284 283 284 285 285 285 286 287 287 286 286 287 287 287 286 287 288 289 289 290 291 292 291 292 291
287 288 287 287 287 286 283 283 283 282 278 281 281 279 281 282 282 282 282 282 282 281 281 281 281 282 283 283 284 284 284 284 284 284 285 285 286 286 286 286 286 287 287 286 288 288 288 288 290 291 290 290 290 289
287 287 287 286 286 282 282 281 280 279 279 276 273 276 279 282 282 281 282 281 280 280 280 280 281 282 283 283 283 284 284 284 284 284 285 285 285 285 286 286 286 286 287 287 288 288 289 289 290 290 290 290 288 287
287 284 284 281 281 280 273 271 272 274 274 269 273 277 281 281 281 280 280 280 280 279 280 280 280 280 280 281 282 284 284 284 284 284 284 284 284 285 286 286 286 286 287 288 288 289 290 290 290 289 286 285 284 284
280 282 280 280 277 276 275 275 271 272 272 271 274 279 280 280 280 281 279 278 278 279 279 279 279 280 281 281 281 282 284 285 285 285 285 285 285 286 286 286 286 286 288 289 290 288 286 284 284 284 284 284 284 284
278 276 279 279 279 279 277 276 277 275 271 273 276 277 279 280 280 279 278 278 278 279 279 280 280 280 281 281 282 282 282 284 286 286 286 286 286 287 288 288 288 287 286 285 285 284 284 284 284 284 284 284 284 284
281 279 276 278 278 277 273 271 269 271 273 278 278 277 278 278 280 278 278 278 279 279 280 281 281 281 282 282 282 283 282 283 284 285 286 286 285 285 285 284 284 283 283 283 284 284 284 284 284 284 284 284 284 284
279 278 279 275 276 276 277 275 275 277 277 277 277 278 277 277 277 278 278 279 279 280 281 282 282 282 282 283 283 284 284 284 284 286 284 283 283 283 283 283 283 283 283 283 283 283 284 284 284 284 284 284 283 283
277 278 278 275 273 273 277 277 277 277 277 277 277 277 277 278 278 278 278 279 280 281 281 281 281 282 283 283 284 284 285 285 286 285 285 284 283 283 283 283 283 283 283 283 283 283 283 283 283 283 283 283 283 283
277 278 277 276 276 276 276 277 277 277 277 277 277 277 277 278 278 279 279 280 280 280 281 282 281 282 282 283 284 284 285 285 283 283 283 283 283 283 283 283 283 283 283 283 283 283 283 283 283 283 283 283 282 282
276 277 277 272 275 275 276 277 277 277 277 277 277 277 278 278 278 279 279 280 280 281 281 281 282 282 282 283 284 284 285 283 283 283 283 283 283 283 283 283 283 283 283 283 283 283 283 283 283 283 283 283 282 282
274 276 275 275 275 275 276 277 276 277 277 277 277 277 277 277 278 278 279 280 280 281 281 281 281 281 281 282 283 284 283 283 284 283 283 283 283 283 283 283 283 283 283 283 283 283 283 283 283 283 283 283 282 282

GFSWCAN_850_thetae_201.txt.gz
Theta_e
298 297 297 297 297 297 296 296 295 295 294 292 292 292 291 291 291 291 291 291 292 293 293 292 292 293 293 293 294 293 293 294 294 295 296 297 297 298 298 298 298 300 301 301 301 302 303 301 301 301 301 300 300 299
298 297 296 296 296 296 296 295 295 294 291 292 291 291 290 290 290 291 292 291 290 293 294 291 292 292 292 292 292 293 293 293 293 295 295 296 297 296 296 297 297 297 298 299 300 301 301 301 300 299 298 297 298 298
296 294 294 294 293 293 293 292 292 293 292 291 290 289 289 289 289 291 292 292 291 292 293 292 292 291 290 290 291 292 293 293 293 293 293 294 293 294 293 294 294 296 297 297 297 298 298 298 297 296 296 296 297 297
293 293 293 292 292 291 291 291 291 290 290 291 291 291 291 291 290 291 291 290 291 292 293 292 291 290 290 290 290 289 291 291 291 291 292 293 293 292 293 294 294 293 294 295 296 296 296 296 295 295 295 295 294 293
294 293 292 291 291 292 292 292 292 292 291 290 290 290 289 289 289 290 289 290 290 292 292 292 291 291 291 290 290 290 291 291 291 292 292 293 291 292 292 293 293 292 293 293 294 293 293 293 293 293 292 293 292 292
292 292 292 291 290 290 290 291 291 290 289 288 287 287 287 288 289 289 292 289 289 290 291 292 292 291 291 290 290 290 291 291 291 291 291 291 291 292 293 292 292 292 292 292 293 292 292 292 292 292 292 292 292 292
290 290 290 290 290 290 290 289 289 288 289 288 287 287 288 288 289 291 291 290 290 289 290 291 291 291 289 289 290 290 290 290 291 291 291 291 291 291 293 292 292 291 291 291 291 292 292 292 292 292 292 292 292 292
290 290 290 289 290 290 289 288 288 288 287 289 289 288 289 289 289 290 290 290 290 290 289 291 291 291 289 291 290 290 291 290 290 290 290 291 291 291 292 292 291 291 291 291 291 291 291 291 291 291 291 292 292 292
289 288 289 289 290 289 288 288 287 289 289 290 290 290 289 289 289 290 289 289 289 290 291 291 290 290 288 290 290 290 290 291 290 290 290 291 291 292 292 291 291 291 291 291 291 292 292 292 291 291 291 292 292 292
289 288 289 289 289 288 287 286 289 288 287 287 288 289 290 289 289 289 289 290 289 290 290 291 290 291 290 290 290 290 291 291 291 292 290 291 291 291 291 291 291 292 292 292 293 293 293 292 292 292 291 291 292 292
288 288 289 289 287 287 286 288 288 288 287 287 288 289 288 289 289 288 289 289 288 289 289 289 289 290 290 290 290 290 291 292 292 292 291 293 293 293 292 291 290 290 290 291 291 291 292 294 293 292 292 292 293 293
288 288 288 288 287 286 285 286 286 286 287 287 288 288 288 288 288 289 288 286 287 289 289 290 290 290 290 290 290 290 291 291 291 292 293 294 295 291 290 289 289 289 290 290 290 290 291 292 294 293 293 294 294 294
288 287 286 286 285 285 285 286 286 286 287 287 287 288 288 286 288 288 287 289 289 289 289 290 290 290 290 289 290 291 291 291 291 294 295 294 292 290 289 289 289 288 289 289 290 291 293 293 293 295 295 295 294 295
286 286 285 285 285 286 285 286 286 287 287 287 288 287 288 287 288 289 289 290 289 288 289 289 289 289 290 290 290 290 290 293 295 296 294 292 289 289 288 288 288 288 288 288 290 293 294 293 294 295 295 294 297 298
287 286 285 286 287 287 288 288 288 288 287 288 287 288 287 288 286 286 286 286 287 287 288 288 288 288 289 289 290 291 292 294 294 293 291 289 288 288 287 287 287 288 288 288 290 293 294 294 294 295 296 298 298 298
285 285 286 286 286 287 287 288 288 288 288 287 287 287 287 286 288 285 285 286 286 287 288 287 288 289 289 290 291 291 293 294 292 290 288 288 287 287 286 287 288 287 287 288 291 292 295 297 297 296 295 295 295 296
287 287 287 287 287 287 288 288 288 288 288 287 287 286 287 287 288 288 286 286 286 288 288 288 288 289 289 290 291 293 293 290 288 287 287 286 286 286 286 288 288 287 287 288 290 291 293 294 296 296 295 295 296 296
288 286 287 287 287 288 288 288 288 288 287 288 287 288 286 287 287 286 287 287 286 287 287 288 287 288 289 289 289 290 287 286 286 286 285 285 285 286 287 287 287 287 287 287 288 289 290 292 293 293 294 294 295 295
287 286 286 286 287 288 288 288 288 287 287 285 285 285 286 286 286 286 286 285 285 286 286 287 288 288 288 289 287 285 285 284 284 283 284 284 285 286 287 287 286 286 286 287 288 288 289 290 290 290 291 292 293 292
287 286 286 287 288 288 288 287 287 286 285 284 284 283 284 285 285 285 285 286 285 285 286 287 287 287 286 285 283 283 283 283 282 283 283 284 285 286 287 286 286 286 286 286 286 287 287 288 289 289 290 290 292 292
287 287 286 287 288 287 287 286 284 283 283 282 282 283 284 283 283 284 284 284 285 286 286 286 285 284 283 283 283 283 283 283 282 282 283 284 285 286 286 286 286 286 286 286 286 287 288 288 287 288 290 291 291 290
285 285 287 287 288 287 286 284 284 283 282 282 282 281 282 284 284 283 283 283 284 283 283 282 282 282 283 283 283 283 283 282 283 284 283 284 284 285 285 285 285 285 286 286 287 287 287 287 288 290 290 290 290 291
286 287 287 287 287 286 283 283 283 282 283 282 280 281 283 283 283 282 283 283 282 281 281 281 281 281 281 282 282 283 282 282 283 283 283 283 284 284 285 285 284 284 285 285 286 286 287 288 289 290 290 290 290 290
287 287 287 287 286 283 282 281 280 279 279 280 281 282 282 283 282 282 284 282 281 280 280 280 280 281 282 282 281 281 282 282 283 283 283 283 283 284 284 284 284 285 285 285 286 287 287 288 289 290 290 290 290 290
287 285 285 281 282 281 280 280 278 279 280 278 278 281 283 281 283 283 283 281 280 279 279 279 280 280 280 280 281 281 282 282 283 282 283 283 283 283 283 284 284 284 285 287 287 288 288 289 289 290 289 287 285 284
284 282 281 283 279 280 281 281 279 279 278 278 279 280 280 282 283 284 281 279 278 278 278 278 279 280 281 280 280 281 281 283 283 283 283 283 284 284 284 285 285 284 286 288 289 289 289 288 285 284 283 284 284 284
284 281 280 279 279 279 279 277 277 278 277 278 280 280 281 282 283 281 279 278 278 278 279 279 279 280 280 281 282 281 281 282 283 283 283 284 284 285 286 286 287 286 288 289 288 286 284 284 284 284 284 284 284 284
281 280 279 278 278 278 277 277 277 277 279 278 279 280 280 281 281 278 278 278 278 279 280 280 280 280 281 282 282 283 283 282 282 283 284 285 286 286 286 286 285 284 283 283 283 284 284 284 284 284 284 284 284 284
279 279 279 274 276 276 277 278 278 277 277 277 279 280 279 278 278 278 278 279 279 279 281 281 281 282 282 282 283 284 284 284 284 284 283 282 282 282 283 283 283 283 283 283 283 283 284 284 284 284 284 284 283 283
277 278 277 276 274 278 277 278 277 277 277 277 277 277 277 278 278 278 278 279 280 280 280 280 280 281 282 283 283 283 284 285 283 283 283 283 283 282 282 283 283 283 283 283 283 283 283 283 283 283 283 283 283 283
277 277 277 277 276 276 277 277 277 277 277 277 277 276 277 278 278 279 278 279 279 280 280 281 281 281 282 283 283 284 284 284 285 283 283 283 283 283 283 283 283 283 283 283 283 283 283 283 283 283 282 282 282 282
276 276 276 274 275 276 276 277 277 277 277 277 277 277 278 278 278 278 279 279 280 280 280 280 281 281 281 282 284 284 283 282 282 282 283 283 283 283 283 283 283 283 283 283 283 283 283 283 283 282 282 282 282 282
274 275 275 275 275 275 276 276 276 276 276 276 276 277 277 277 277 278 278 279 279 280 280 280 280 280 281 281 283 282 281 282 282 282 282 282 282 282 282 283 283 283 283 283 283 283 283 283 283 283 283 283 282 282

GFSWCAN_850_thetae_204.txt.gz
Theta_e
300 299 297 297 297 296 295 294 293 293 293 292 292 292 292 291 291 292 291 291 292 294 293 292 293 292 293 293 292 293 292 293 293 293 294 295 295 295 296 297 296 298 300 299 299 301 302 301 301 301 299 299 299 298
299 298 297 296 296 296 295 295 295 294 294 292 292 291 291 290 290 291 292 291 291 291 294 293 291 292 293 293 292 293 293 293 293 292 293 293 294 294 294 294 295 295 295 296 297 300 298 298 299 298 297 296 296 296
298 298 297 297 297 297 297 296 295 294 292 292 291 291 289 289 289 290 292 292 291 292 293 293 293 292 291 290 290 292 292 293 293 293 293 292 291 292 290 291 291 291 293 292 293 296 296 297 297 296 296 295 295 294
297 296 296 296 296 296 296 295 293 292 292 291 290 291 291 291 290 291 291 290 291 292 292 292 292 290 290 290 290 290 290 291 292 292 291 289 290 292 289 291 291 292 292 291 292 292 293 293 295 295 295 294 293 293
294 294 293 294 294 293 293 293 292 290 291 291 291 290 290 289 289 289 290 289 290 292 292 292 291 291 291 291 291 290 290 291 291 292 289 289 291 290 290 290 290 291 290 290 291 292 292 293 293 293 293 293 292 292
293 293 293 292 292 292 292 292 292 292 291 290 289 288 287 288 288 289 292 289 289 289 291 290 292 292 291 290 290 290 291 291 291 292 292 292 291 291 290 289 290 291 291 291 291 291 291 292 292 292 292 292 292 292
294 292 291 291 291 292 292 292 291 290 289 288 287 287 287 288 289 291 291 290 289 289 290 290 291 291 291 290 290 290 290 290 290 291 291 291 291 291 290 290 290 290 290 291 291 291 291 291 291 291 292 291 291 291
292 291 290 290 290 290 290 289 289 288 288 287 289 289 289 289 289 290 290 289 290 290 289 286 289 291 290 290 290 291 291 291 290 290 290 290 290 291 291 291 291 291 292 291 292 291 292 291 291 291 291 291 291 291
290 290 290 290 291 290 289 288 288 287 289 289 289 289 289 289 289 289 289 289 289 290 290 290 289 288 290 290 290 290 290 287 290 289 290 290 290 291 292 292 291 291 291 292 291 291 291 292 292 292 292 291 291 291
290 290 289 290 290 290 288 287 289 288 289 290 290 290 290 290 288 289 288 289 289 290 289 290 290 288 290 290 290 290 290 289 287 291 290 291 291 291 291 291 290 290 290 289 290 290 290 291 292 292 293 292 291 291
289 290 289 289 289 287 287 288 289 288 287 287 288 290 289 289 289 289 288 287 288 287 289 290 289 289 290 288 288 289 287 289 289 291 291 292 293 292 291 289 289 289 289 289 289 289 290 290 290 291 292 293 292 291
289 290 289 289 287 287 288 288 287 287 287 287 288 288 288 288 288 286 282 287 286 288 289 290 290 290 290 290 290 290 290 290 288 292 292 292 293 290 289 288 288 288 288 288 288 289 289 289 290 290 292 293 292 292
288 288 288 287 286 286 286 286 286 286 286 287 286 288 288 287 283 283 280 282 284 289 289 290 289 289 289 289 290 290 289 290 291 292 293 293 290 288 288 288 287 287 288 288 288 288 290 292 293 292 292 294 293 294
287 287 285 285 285 285 285 286 285 286 287 286 288 282 283 281 282 285 286 287 289 288 289 289 289 289 289 287 289 287 289 290 291 293 293 289 288 287 287 287 287 287 287 288 287 289 292 293 293 293 293 295 294 293
286 285 285 285 286 286 285 286 287 288 287 287 287 282 282 287 288 287 287 287 287 287 287 288 288 288 287 286 287 289 290 290 294 292 289 288 287 287 286 286 286 286 288 287 287 289 292 294 294 294 295 295 295 295
286 285 285 286 287 287 288 289 289 288 288 287 287 286 287 286 288 287 286 286 286 287 288 287 285 283 285 286 289 289 290 292 291 288 287 286 286 286 285 285 286 287 287 286 287 289 291 293 294 295 295 295 296 297
285 287 286 287 287 287 287 288 288 288 288 287 286 286 287 288 287 288 288 287 287 288 283 287 283 284 285 285 287 290 290 288 287 286 285 285 285 284 284 285 286 287 286 286 287 288 290 291 292 294 294 294 295 295
287 287 287 287 287 288 288 288 288 288 287 287 287 288 287 287 288 288 287 287 286 287 287 282 287 283 283 284 286 287 286 285 284 284 284 284 284 284 284 285 287 286 286 286 287 288 289 290 291 291 292 293 294 294
288 286 287 287 287 288 288 288 288 287 287 286 286 286 286 286 286 286 286 286 286 287 287 287 281 281 284 287 286 285 284 283 283 283 283 283 283 284 284 285 286 286 286 286 286 287 287 288 288 289 291 291 292 292
286 286 286 287 287 288 288 287 287 286 285 285 284 283 284 285 285 285 285 284 284 284 285 283 284 287 286 286 285 283 283 283 282 282 282 283 283 283 284 285 286 286 286 286 286 287 287 288 288 288 289 290 291 291
287 287 287 286 287 287 287 286 285 283 283 283 282 283 283 284 283 284 283 284 285 286 286 287 286 286 285 284 283 282 283 282 282 281 282 282 283 283 284 284 285 285 285 285 286 286 287 287 287 288 289 289 290 290
286 286 285 286 288 287 286 285 284 284 283 282 282 281 281 283 284 284 283 283 284 284 284 283 283 283 282 283 282 282 282 282 281 282 283 282 282 283 283 284 284 284 284 284 285 286 285 286 287 288 289 288 289 289
286 285 286 287 287 286 283 283 283 282 280 281 281 279 281 282 283 282 282 283 282 281 281 281 281 281 281 282 282 282 281 281 281 282 282 282 282 282 283 283 283 284 284 283 284 284 284 285 286 287 287 288 289 289
287 287 287 287 286 282 283 281 281 280 279 279 275 274 278 283 282 282 281 283 281 281 280 280 280 280 281 281 281 281 281 280 280 282 281 282 282 282 282 283 283 283 283 283 284 284 285 285 287 288 288 289 289 290
287 285 285 282 282 281 276 275 277 278 274 274 274 273 281 281 282 282 283 281 280 279 279 279 279 279 279 279 280 281 281 280 281 281 282 282 282 282 282 282 283 282 283 284 285 286 286 287 288 289 289 290 289 286
281 283 281 283 280 278 277 276 273 273 274 272 274 279 280 281 282 283 280 279 279 278 278 278 278 279 280 280 280 280 280 280 281 281 282 282 282 283 282 282 283 283 284 286 287 288 288 289 288 287 284 283 284 284
280 278 281 281 280 280 279 278 278 278 272 272 273 278 279 280 282 280 279 279 278 278 279 279 279 279 279 280 281 281 281 280 280 280 281 282 283 284 284 285 285 284 286 288 289 288 285 284 284 284 284 284 284 284
282 281 277 279 279 279 276 277 272 272 272 279 278 275 279 279 280 279 279 278 279 279 280 279 279 280 280 281 282 282 282 282 281 280 281 283 284 285 286 286 286 286 285 284 284 284 284 284 284 284 284 284 284 283
279 279 279 276 277 277 278 277 278 278 278 278 277 277 279 278 279 278 279 279 279 280 280 281 281 281 281 282 282 283 283 283 284 283 282 282 282 282 283 283 283 283 283 283 283 283 284 284 284 284 284 284 283 283
278 279 278 276 273 272 278 278 278 278 278 278 277 277 278 278 279 279 279 279 280 280 279 279 279 280 281 282 282 283 284 283 282 282 282 283 282 282 283 283 283 283 283 284 284 283 283 283 283 283 283 283 283 283
277 278 278 277 277 277 277 277 277 277 277 277 277 277 277 278 278 279 279 279 279 279 280 280 280 280 281 282 283 284 284 282 282 282 283 283 283 282 283 283 283 283 283 283 283 283 283 283 283 283 282 282 282 282
276 276 276 272 276 276 276 277 277 277 277 277 277 277 278 278 278 278 279 279 279 280 280 279 280 280 281 282 283 283 284 282 282 282 282 282 282 282 282 282 282 282 282 282 282 282 282 282 282 282 282 282 282 282
275 275 275 275 275 275 276 276 276 276 276 276 276 277 277 277 277 278 278 279 279 280 280 279 279 279 280 281 282 282 281 282 282 282 282 282 282 282 282 282 282 282 283 283 283 283 283 283 283 282 282 282 282 281

GFSWCAN_850_thetae_207.txt.gz
Theta_e
300 300 299 299 298 296 295 295 295 294 293 293 292 292 293 292 292 292 292 292 292 294 292 292 293 292 293 293 290 292 291 291 291 290 293 293 293 293 294 294 296 298 298 297 297 299 299 297 299 299 298 297 297 297
299 299 298 298 297 296 295 295 294 293 292 293 292 292 292 291 291 291 291 291 291 291 293 293 291 291 292 293 293 293 292 292 292 288 290 290 292 290 290 291 291 294 292 292 297 300 296 295 297 296 296 296 296 295
299 298 298 298 296 295 294 294 295 294 294 292 292 292 290 289 289 291 292 292 291 291 292 293 292 292 291 293 292 291 291 292 293 292 291 290 288 289 288 289 290 290 290 290 291 291 291 292 292 293 294 294 295 294
298 298 297 297 296 296 296 296 296 294 293 292 291 289 290 290 290 291 291 290 291 291 290 292 291 291 291 290 290 290 291 291 291 291 291 286 288 290 287 289 288 290 290 289 290 290 290 290 291 292 292 292 293 292
298 298 298 298 298 297 296 295 294 293 292 291 291 291 290 289 289 289 290 289 290 291 291 291 291 291 291 291 290 291 290 291 291 291 284 287 290 289 288 287 289 289 289 289 289 289 289 290 290 291 291 291 291 292
296 296 295 295 295 295 294 293 292 291 291 291 290 289 288 288 288 289 291 289 289 289 289 285 290 291 290 289 289 290 290 290 291 291 290 291 291 290 287 287 289 289 290 290 289 290 290 290 290 290 290 291 291 291
293 293 293 293 293 291 291 291 292 291 290 289 287 287 287 288 289 291 291 289 289 289 289 287 289 291 290 290 290 290 290 290 291 291 290 290 290 290 284 289 290 289 289 290 290 290 290 290 290 290 290 290 290 290
293 292 293 293 293 293 292 292 291 289 288 287 287 288 288 289 289 290 289 289 289 289 289 279 284 289 290 289 290 291 291 290 290 290 290 289 289 289 287 290 290 290 291 290 290 290 291 291 291 291 291 291 291 291
291 291 291 290 291 291 290 289 288 288 288 288 288 289 289 288 289 289 289 289 289 289 290 288 284 283 289 289 289 290 290 282 289 287 289 289 288 289 290 291 291 291 290 289 289 289 289 289 290 290 290 290 291 292
291 291 291 291 290 290 288 288 287 288 289 290 289 290 288 289 288 288 288 288 288 289 289 288 290 286 289 289 289 288 289 287 284 289 290 290 290 290 291 290 289 289 288 288 288 289 289 289 289 289 289 290 291 292
290 290 291 291 290 288 287 289 288 288 290 289 288 289 289 288 288 288 287 285 287 284 289 289 289 287 289 285 286 289 282 284 287 288 291 289 292 291 290 288 288 288 287 287 287 287 288 288 288 288 289 289 290 291
290 290 290 289 287 288 288 289 288 287 287 287 287 288 288 288 288 281 275 283 283 285 289 289 290 289 289 290 289 288 287 287 284 288 288 290 292 288 287 287 287 287 287 287 287 287 288 288 288 288 289 289 289 290
291 290 289 289 289 288 288 287 286 286 287 287 286 287 287 285 279 277 277 277 279 288 288 289 287 289 289 289 288 285 282 285 290 289 288 289 288 287 286 286 286 286 286 286 287 287 287 288 291 292 291 291 290 291
289 288 287 287 288 288 286 285 286 286 286 286 287 280 277 274 275 279 280 281 288 289 289 288 288 288 288 285 284 282 286 288 285 287 291 288 287 286 286 285 285 285 286 286 287 286 287 290 292 293 292 292 292 293
287 286 285 284 284 285 287 286 285 287 287 286 287 279 277 286 287 288 287 288 287 287 287 288 287 288 282 282 280 284 285 287 288 291 288 286 285 285 285 284 284 284 285 286 286 286 288 290 293 293 293 293 294 293
286 285 286 286 287 287 287 287 288 288 288 286 286 281 286 285 285 287 287 287 286 287 287 287 280 277 280 280 284 283 285 285 289 287 285 285 285 285 284 284 284 284 285 286 286 287 288 289 291 294 295 295 295 294
284 284 285 285 287 288 288 288 288 287 287 286 285 286 286 287 287 287 288 287 287 287 281 283 280 281 279 281 282 285 285 286 285 284 284 284 284 284 283 283 284 285 286 286 286 287 288 289 291 293 295 295 296 296
287 287 287 286 287 287 287 288 288 287 287 287 286 287 286 287 287 287 287 287 287 287 287 282 285 280 278 279 285 284 285 284 284 284 284 284 284 283 283 283 284 285 286 286 286 286 288 288 290 291 292 293 294 294
286 287 287 287 287 287 288 287 288 286 285 286 286 285 285 286 286 286 286 286 286 286 286 286 281 280 282 285 285 285 284 283 282 283 283 283 282 282 282 283 283 285 285 285 286 286 287 288 288 289 290 291 292 292
287 287 286 286 286 287 288 287 287 285 284 284 284 283 284 284 284 283 283 283 283 284 285 280 280 285 285 285 283 282 283 282 282 281 281 282 282 282 282 282 283 284 284 285 285 286 287 287 288 288 289 290 292 291
286 286 286 286 285 286 287 286 284 283 282 282 281 282 283 283 283 283 283 283 283 284 284 285 284 284 283 283 283 282 282 282 281 280 280 280 281 282 282 282 283 283 284 284 285 285 286 286 286 287 289 289 289 289
287 287 285 285 287 287 286 285 284 283 283 281 281 281 281 281 282 283 283 282 283 283 283 282 282 282 282 283 282 282 282 281 281 280 280 281 281 281 281 282 282 283 283 283 284 284 284 285 286 287 288 288 288 289
285 285 285 286 287 286 283 283 283 282 278 281 280 277 279 281 282 282 282 282 282 281 281 281 280 280 281 281 281 281 281 280 280 280 280 281 281 281 281 282 282 282 283 282 283 283 283 283 284 286 286 286 288 288
286 286 287 287 285 282 282 281 281 280 280 277 269 271 273 282 282 282 278 282 281 280 280 280 279 280 281 281 280 280 280 280 279 280 280 280 281 281 281 281 282 282 282 282 282 282 282 283 284 285 286 287 288 288
287 285 285 282 282 281 273 270 273 274 273 269 270 270 278 281 279 279 281 281 280 279 279 279 279 279 278 279 280 280 280 279 279 280 280 281 282 281 281 281 282 281 282 283 283 283 283 284 285 286 287 288 288 288
279 283 282 282 279 277 274 275 270 271 270 270 270 279 280 279 279 281 280 279 279 278 278 278 278 278 280 279 279 280 280 280 279 280 280 281 281 281 282 282 282 282 282 283 284 284 284 285 287 287 287 285 284 284
278 277 281 281 280 280 279 278 278 276 270 271 269 273 276 278 278 280 279 279 278 278 278 278 278 278 279 280 281 281 281 281 279 279 280 281 282 282 283 283 284 283 284 286 287 288 288 287 286 284 284 284 284 284
282 280 277 279 279 279 276 274 269 270 270 278 278 272 274 276 279 279 279 278 278 279 279 279 279 279 280 281 281 282 282 282 281 280 280 281 283 284 284 285 284 286 287 286 284 284 284 284 284 284 284 284 284 283
280 279 280 277 278 278 278 276 277 278 278 278 275 274 279 279 279 278 279 279 279 279 280 280 280 280 281 281 281 282 282 283 283 282 282 282 283 283 282 282 282 282 283 283 283 283 284 284 284 284 283 283 283 283
278 278 278 276 273 272 278 278 278 278 278 278 278 277 278 278 278 278 279 279 280 280 279 279 279 280 281 282 282 283 282 283 282 282 282 283 282 282 282 283 283 283 283 284 284 283 283 283 283 283 283 283 283 283
277 278 278 277 277 277 277 277 277 277 277 277 277 277 277 278 278 278 278 279 279 279 279 279 279 280 281 282 283 282 281 281 283 282 282 282 282 282 282 283 283 283 283 283 283 283 283 283 283 283 283 282 282 282
276 277 277 272 276 276 276 276 277 277 276 277 277 276 277 277 278 278 278 279 279 279 279 279 279 280 280 282 283 282 281 281 281 282 282 282 282 282 282 283 283 283 283 283 283 282 282 282 282 282 282 282 282 282
274 275 275 275 275 275 275 276 276 276 276 276 276 276 276 277 277 278 278 279 279 279 279 279 279 279 280 281 282 281 282 282 282 282 282 282 282 282 282 282 282 282 282 282 282 282 282 282 282 282 282 282 282 281

GFSWCAN_850_thetae_210.txt.gz
Theta_e
304 302 300 300 299 298 297 296 294 293 293 293 293 293 293 292 291 292 292 292 292 293 292 293 293 293 293 293 291 292 292 291 291 292 293 293 293 292 293 292 296 297 297 297 299 300 299 294 296 298 295 295 296 295
301 301 300 299 298 296 296 295 294 294 293 292 292 292 292 292 292 292 292 292 292 293 293 292 292 292 292 292 293 292 291 291 291 288 289 290 292 288 289 292 289 293 292 292 295 296 292 292 291 292 291 292 293 295
300 300 299 298 296 296 296 295 294 292 293 292 291 291 291 291 290 291 291 291 291 291 292 292 292 291 291 292 292 292 291 292 292 292 290 289 288 288 287 288 290 289 289 289 290 290 290 290 290 290 291 291 291 292
299 299 298 297 296 295 295 295 294 294 292 292 291 290 289 289 290 291 291 291 291 291 291 291 291 291 291 291 292 290 291 291 291 291 291 285 288 289 285 287 287 288 289 288 288 288 289 289 289 289 289 290 290 290
299 298 298 296 296 296 295 296 295 292 292 291 290 291 290 290 290 291 290 290 290 291 291 291 290 291 291 291 290 290 290 290 291 290 282 286 289 288 287 286 286 289 288 287 287 288 288 289 289 289 289 289 289 290
298 298 298 297 297 297 296 295 293 292 291 291 291 290 289 288 288 289 289 289 289 289 289 286 290 291 290 289 289 289 290 290 290 291 290 290 290 289 284 286 289 289 289 289 288 289 289 289 289 289 289 289 289 289
298 298 297 298 297 295 294 293 292 290 291 290 289 287 287 288 289 291 290 289 289 289 289 286 289 291 290 290 289 289 289 290 290 290 290 289 290 291 283 289 289 289 289 289 289 290 289 289 290 290 290 290 290 290
296 296 295 295 294 293 293 292 291 291 289 287 287 287 289 289 289 289 289 289 288 288 288 277 283 289 289 288 289 290 290 289 290 290 289 288 288 289 286 288 289 290 291 290 289 289 289 289 288 289 289 289 289 290
294 294 293 293 293 293 292 291 289 288 287 289 289 289 289 288 289 289 289 289 288 289 289 286 283 283 289 289 289 289 290 282 288 287 289 289 288 287 289 289 290 289 289 289 288 288 288 288 288 288 289 288 289 289
293 293 293 293 292 292 290 289 288 288 289 289 289 289 288 288 288 288 288 288 288 288 288 287 288 285 289 288 288 287 287 286 283 288 289 289 289 289 290 290 289 288 287 287 287 287 287 287 287 288 288 288 288 288
292 292 292 291 290 288 288 287 288 290 290 289 289 288 288 288 288 288 287 284 286 283 288 288 289 286 288 285 285 288 280 282 285 286 290 289 291 289 288 287 287 286 286 286 286 286 286 286 286 287 287 287 288 288
292 291 291 289 288 289 289 288 289 290 289 287 287 288 288 287 287 279 272 281 282 284 288 288 289 289 289 289 288 287 285 286 283 286 285 288 289 287 286 286 286 285 285 285 285 285 286 286 287 287 287 287 288 288
291 290 289 289 289 289 288 287 287 287 287 287 286 286 287 284 278 276 277 276 278 286 288 288 285 288 288 289 287 285 280 284 287 287 287 286 287 286 285 285 285 285 285 285 285 286 286 286 287 288 289 291 291 289
290 289 289 288 288 288 286 286 286 286 286 286 286 279 275 273 274 277 278 280 286 288 289 288 288 287 287 283 280 283 284 286 284 281 287 288 286 285 284 284 284 284 284 284 285 286 286 286 288 290 292 292 291 290
288 287 288 288 288 286 285 285 285 286 287 286 286 279 278 284 286 286 287 287 287 286 287 287 287 286 280 279 279 283 281 283 283 287 287 286 285 284 284 284 283 283 284 284 285 286 286 287 288 290 293 292 292 292
286 285 287 286 285 287 287 285 286 287 287 286 285 281 284 284 284 287 287 287 286 287 287 287 278 275 279 278 281 280 282 284 287 284 285 284 283 283 284 283 283 283 283 284 285 285 286 287 288 290 293 294 294 293
285 286 287 287 288 288 288 288 288 287 286 285 285 285 286 285 285 287 287 287 287 287 283 282 279 280 276 280 280 282 286 285 285 283 283 283 283 284 283 282 283 283 283 284 285 285 286 287 288 290 293 295 295 294
284 286 286 286 288 288 287 287 287 286 286 286 285 286 286 286 287 287 287 287 287 286 286 281 284 278 279 274 280 282 285 284 284 284 284 284 284 283 282 282 282 282 283 284 284 285 286 287 288 289 290 291 294 295
288 287 286 287 287 287 287 287 287 285 285 285 285 284 284 285 286 286 285 286 286 286 286 285 280 276 280 282 283 284 284 283 282 282 283 283 282 281 281 282 282 282 283 284 284 285 286 287 287 289 289 291 291 291
287 287 286 286 286 287 287 287 286 284 283 284 283 283 283 284 283 283 282 283 283 284 284 280 279 282 283 283 282 282 282 282 281 280 281 282 282 281 281 281 281 282 283 283 284 285 286 286 287 288 289 290 291 291
287 286 286 286 286 286 287 286 284 282 282 282 281 282 282 281 282 282 282 282 283 283 282 284 283 283 283 283 282 281 281 281 280 280 280 280 280 280 281 281 281 282 282 283 283 284 285 285 286 287 288 289 289 289
286 286 286 285 287 287 286 284 283 283 283 282 281 280 280 280 281 282 282 282 282 283 282 281 281 281 281 282 281 281 281 280 280 280 280 280 280 280 281 281 281 282 282 283 283 283 284 284 285 286 287 287 288 288
286 285 284 286 286 286 283 283 283 282 277 281 280 276 278 280 281 281 281 282 282 281 281 280 280 280 280 280 281 281 280 279 280 280 279 279 280 281 281 281 281 281 282 282 282 282 282 283 284 285 285 286 287 287
285 285 286 286 285 281 282 281 280 280 279 275 268 272 272 280 281 281 278 281 280 280 280 279 279 279 280 280 280 280 280 279 279 279 279 279 280 281 281 281 281 281 281 281 282 282 282 283 283 284 285 286 287 287
286 284 284 281 282 281 271 268 272 274 273 267 270 270 276 280 278 277 279 281 280 280 279 278 278 278 277 278 279 280 280 279 279 279 279 279 280 281 281 280 281 281 281 281 281 282 282 282 283 285 286 287 287 287
278 282 281 280 279 277 273 275 270 271 269 270 269 277 279 277 277 278 280 280 279 278 277 277 277 277 279 278 278 279 280 280 279 279 279 280 280 281 281 281 280 280 281 281 282 282 282 282 283 285 285 286 287 286
278 277 281 281 280 280 278 278 277 275 270 271 269 271 273 277 277 280 280 279 278 278 278 278 277 277 278 279 280 280 281 281 280 279 279 280 281 281 281 282 281 281 281 283 283 284 285 286 287 287 286 284 284 284
282 280 276 279 279 279 275 272 269 270 269 277 276 271 272 275 279 279 279 278 278 279 279 278 278 279 279 280 280 281 281 281 281 280 279 280 281 282 283 283 282 283 284 285 286 287 287 287 284 284 284 284 283 283
280 280 280 277 278 278 278 276 276 278 278 278 275 273 278 279 279 278 278 278 278 279 279 279 280 280 280 280 281 282 282 282 282 282 282 281 283 283 283 283 283 284 284 284 283 284 284 284 284 284 283 283 283 283
278 278 278 276 273 272 277 278 277 278 277 278 278 278 278 278 278 278 278 278 279 279 278 278 278 280 281 282 282 283 283 282 283 283 283 283 282 281 282 282 283 283 283 283 283 283 283 283 283 283 283 283 283 283
277 277 278 277 276 276 277 277 277 277 277 277 277 277 277 278 278 278 278 278 278 278 279 279 279 280 281 282 281 282 283 282 282 282 282 282 282 282 282 282 283 283 283 283 283 283 283 283 283 283 283 282 282 282
276 277 276 273 276 276 276 276 276 276 276 276 276 276 277 277 277 278 278 278 279 279 279 279 279 280 281 282 280 281 283 283 282 282 282 282 282 282 282 282 282 282 282 283 283 283 283 283 282 282 282 282 282 282
275 275 275 276 275 275 275 276 275 276 275 276 276 275 276 276 277 277 278 278 278 279 279 279 279 280 280 281 282 281 281 281 281 282 282 282 282 282 282 282 282 282 282 282 282 282 282 282 282 281 281 281 281 281